Wetterdaten: Samstag, 25.02.2017
Datum Zeit Temp. A. Feuchte A. Luftdruck Regen Wind Richtung Richtung Sonnenschein ET UV Solar Taupunkt Windchill Windben Empfang
25.02.2017 00:00 1,3 C 90 % 1018,6 hPa 0,0 l/m 10,9 km/h (2 Bft) W-SW 250 0 min 0,000 mm 0,0 UV-I 0 W/m -0,2 C -2,7 C 16,1 km/h (3 Bft) 98,21 %
25.02.2017 00:02 1,3 C 90 % 1018,7 hPa 0,0 l/m 10,6 km/h (2 Bft) SW 233 0 min 0,000 mm 0,0 UV-I 0 W/m -0,2 C -2,5 C 14,5 km/h (3 Bft) 93,18 %
25.02.2017 00:04 1,3 C 90 % 1018,7 hPa 0,0 l/m 11,0 km/h (2 Bft) SW 230 0 min 0,000 mm 0,0 UV-I 0 W/m -0,2 C -2,8 C 16,1 km/h (3 Bft) 95,12 %
25.02.2017 00:06 1,3 C 90 % 1018,7 hPa 0,0 l/m 10,1 km/h (2 Bft) W-SW 246 0 min 0,000 mm 0,0 UV-I 0 W/m -0,2 C -2,1 C 12,9 km/h (3 Bft) 94,34 %
25.02.2017 00:08 1,3 C 90 % 1018,8 hPa 0,0 l/m 9,7 km/h (2 Bft) SW 234 0 min 0,000 mm 0,0 UV-I 0 W/m -0,2 C -1,8 C 16,1 km/h (3 Bft) 95,74 %
25.02.2017 00:10 1,2 C 90 % 1018,8 hPa 0,0 l/m 7,9 km/h (2 Bft) S-SW 205 0 min 0,000 mm 0,0 UV-I 0 W/m -0,3 C -0,3 C 14,5 km/h (3 Bft) 94,44 %
25.02.2017 00:12 1,3 C 90 % 1018,9 hPa 0,0 l/m 7,4 km/h (2 Bft) SW 216 0 min 0,000 mm 0,0 UV-I 0 W/m -0,2 C 0,3 C 11,3 km/h (2 Bft) 98,21 %
25.02.2017 00:14 1,3 C 90 % 1018,9 hPa 0,0 l/m 7,2 km/h (2 Bft) SW 216 0 min 0,000 mm 0,0 UV-I 0 W/m -0,2 C 0,5 C 9,7 km/h (2 Bft) 95,12 %
25.02.2017 00:16 1,3 C 90 % 1019,0 hPa 0,0 l/m 5,8 km/h (2 Bft) SW 217 0 min 0,000 mm 0,0 UV-I 0 W/m -0,2 C 1,3 C 8,0 km/h (2 Bft) 97,87 %
25.02.2017 00:18 1,2 C 90 % 1019,0 hPa 0,0 l/m 7,0 km/h (2 Bft) S-SW 210 0 min 0,000 mm 0,0 UV-I 0 W/m -0,3 C 0,6 C 9,7 km/h (2 Bft) 96,43 %
25.02.2017 00:20 1,2 C 90 % 1019,0 hPa 0,0 l/m 7,4 km/h (2 Bft) S-SW 213 0 min 0,000 mm 0,0 UV-I 0 W/m -0,3 C 0,2 C 11,3 km/h (2 Bft) 94,74 %
25.02.2017 00:22 1,2 C 90 % 1019,0 hPa 0,0 l/m 7,5 km/h (2 Bft) SW 228 0 min 0,000 mm 0,0 UV-I 0 W/m -0,3 C 0,1 C 9,7 km/h (2 Bft) 95,74 %
25.02.2017 00:24 1,2 C 90 % 1019,0 hPa 0,0 l/m 8,7 km/h (2 Bft) SW 234 0 min 0,000 mm 0,0 UV-I 0 W/m -0,3 C -1,0 C 14,5 km/h (3 Bft) 96,00 %
25.02.2017 00:26 1,2 C 90 % 1019,0 hPa 0,0 l/m 6,6 km/h (2 Bft) SW 236 0 min 0,000 mm 0,0 UV-I 0 W/m -0,3 C 1,0 C 12,9 km/h (3 Bft) 96,23 %
25.02.2017 00:28 1,2 C 90 % 1019,0 hPa 0,0 l/m 6,6 km/h (2 Bft) W-SW 238 0 min 0,000 mm 0,0 UV-I 0 W/m -0,3 C 1,0 C 9,7 km/h (2 Bft) 97,56 %
25.02.2017 00:30 1,2 C 90 % 1019,0 hPa 0,0 l/m 7,2 km/h (2 Bft) SW 236 0 min 0,000 mm 0,0 UV-I 0 W/m -0,3 C 0,4 C 9,7 km/h (2 Bft) 98,00 %
25.02.2017 00:32 1,1 C 90 % 1019,1 hPa 0,0 l/m 7,7 km/h (2 Bft) SW 226 0 min 0,000 mm 0,0 UV-I 0 W/m -0,4 C -0,2 C 9,7 km/h (2 Bft) 100,00 %
25.02.2017 00:34 1,1 C 90 % 1019,1 hPa 0,0 l/m 7,1 km/h (2 Bft) W-SW 240 0 min 0,000 mm 0,0 UV-I 0 W/m -0,4 C 0,4 C 9,7 km/h (2 Bft) 98,39 %
25.02.2017 00:36 1,2 C 90 % 1019,1 hPa 0,0 l/m 6,9 km/h (2 Bft) S-SW 205 0 min 0,000 mm 0,0 UV-I 0 W/m -0,3 C 0,7 C 9,7 km/h (2 Bft) 97,87 %
25.02.2017 00:38 1,2 C 90 % 1019,1 hPa 0,0 l/m 7,1 km/h (2 Bft) SW 215 0 min 0,000 mm 0,0 UV-I 0 W/m -0,3 C 0,5 C 11,3 km/h (2 Bft) 98,00 %
25.02.2017 00:40 1,3 C 90 % 1019,1 hPa 0,0 l/m 6,5 km/h (2 Bft) SW 216 0 min 0,000 mm 0,0 UV-I 0 W/m -0,2 C 1,2 C 9,7 km/h (2 Bft) 96,00 %
25.02.2017 00:42 1,3 C 90 % 1019,1 hPa 0,0 l/m 8,8 km/h (2 Bft) W-SW 237 0 min 0,000 mm 0,0 UV-I 0 W/m -0,2 C -1,0 C 12,9 km/h (3 Bft) 97,37 %
25.02.2017 00:44 1,3 C 90 % 1019,2 hPa 0,0 l/m 8,6 km/h (2 Bft) SW 230 0 min 0,000 mm 0,0 UV-I 0 W/m -0,2 C -0,8 C 12,9 km/h (3 Bft) 98,00 %
25.02.2017 00:46 1,3 C 89 % 1019,1 hPa 0,0 l/m 8,0 km/h (2 Bft) W-SW 238 0 min 0,000 mm 0,0 UV-I 0 W/m -0,3 C -0,3 C 12,9 km/h (3 Bft) 97,62 %
25.02.2017 00:48 1,3 C 89 % 1019,2 hPa 0,0 l/m 7,5 km/h (2 Bft) SW 236 0 min 0,000 mm 0,0 UV-I 0 W/m -0,3 C 0,2 C 9,7 km/h (2 Bft) 100,00 %
25.02.2017 00:50 1,3 C 89 % 1019,2 hPa 0,0 l/m 8,0 km/h (2 Bft) W-SW 248 0 min 0,000 mm 0,0 UV-I 0 W/m -0,3 C -0,3 C 12,9 km/h (3 Bft) 97,87 %
25.02.2017 00:52 1,3 C 89 % 1019,3 hPa 0,0 l/m 9,6 km/h (2 Bft) SW 236 0 min 0,000 mm 0,0 UV-I 0 W/m -0,3 C -1,7 C 14,5 km/h (3 Bft) 100,00 %
25.02.2017 00:55 1,3 C 89 % 1019,3 hPa 0,0 l/m 9,5 km/h (2 Bft) SW 229 0 min 0,000 mm 0,0 UV-I 0 W/m -0,3 C -1,6 C 12,9 km/h (3 Bft) 98,82 %
25.02.2017 00:56 1,2 C 89 % 1019,3 hPa 0,0 l/m 11,1 km/h (2 Bft) SW 228 0 min 0,000 mm 0,0 UV-I 0 W/m -0,4 C -3,0 C 16,1 km/h (3 Bft) 83,33 %
25.02.2017 00:58 1,2 C 89 % 1019,4 hPa 0,0 l/m 9,4 km/h (2 Bft) SW 232 0 min 0,000 mm 0,0 UV-I 0 W/m -0,4 C -1,6 C 16,1 km/h (3 Bft) 98,11 %
25.02.2017 01:00 1,2 C 89 % 1019,4 hPa 0,0 l/m 8,2 km/h (2 Bft) W-SW 240 0 min 0,000 mm 0,0 UV-I 0 W/m -0,4 C -0,6 C 12,9 km/h (3 Bft) 100,00 %
25.02.2017 01:02 1,2 C 89 % 1019,4 hPa 0,0 l/m 7,9 km/h (2 Bft) SW 236 0 min 0,000 mm 0,0 UV-I 0 W/m -0,4 C -0,3 C 11,3 km/h (2 Bft) 97,37 %
25.02.2017 01:04 1,2 C 89 % 1019,4 hPa 0,0 l/m 7,7 km/h (2 Bft) W-SW 246 0 min 0,000 mm 0,0 UV-I 0 W/m -0,4 C -0,1 C 11,3 km/h (2 Bft) 98,46 %
25.02.2017 01:06 1,2 C 90 % 1019,4 hPa 0,0 l/m 7,8 km/h (2 Bft) S-SW 209 0 min 0,000 mm 0,0 UV-I 0 W/m -0,3 C -0,2 C 12,9 km/h (3 Bft) 95,74 %
25.02.2017 01:08 1,2 C 90 % 1019,4 hPa 0,0 l/m 8,8 km/h (2 Bft) S-SW 199 0 min 0,000 mm 0,0 UV-I 0 W/m -0,3 C -1,1 C 12,9 km/h (3 Bft) 100,00 %
25.02.2017 01:10 1,2 C 90 % 1019,4 hPa 0,0 l/m 8,0 km/h (2 Bft) W-SW 241 0 min 0,000 mm 0,0 UV-I 0 W/m -0,3 C -0,4 C 11,3 km/h (2 Bft) 94,92 %
25.02.2017 01:12 1,2 C 90 % 1019,4 hPa 0,0 l/m 9,8 km/h (2 Bft) S-SW 198 0 min 0,000 mm 0,0 UV-I 0 W/m -0,3 C -2,0 C 14,5 km/h (3 Bft) 97,56 %
25.02.2017 01:14 1,2 C 90 % 1019,4 hPa 0,0 l/m 9,3 km/h (2 Bft) SW 218 0 min 0,000 mm 0,0 UV-I 0 W/m -0,3 C -1,5 C 14,5 km/h (3 Bft) 98,00 %
25.02.2017 01:16 1,3 C 89 % 1019,4 hPa 0,0 l/m 7,3 km/h (2 Bft) SW 223 0 min 0,000 mm 0,0 UV-I 0 W/m -0,3 C 0,4 C 11,3 km/h (2 Bft) 97,87 %
25.02.2017 01:18 1,3 C 89 % 1019,4 hPa 0,0 l/m 7,5 km/h (2 Bft) W-SW 241 0 min 0,000 mm 0,0 UV-I 0 W/m -0,3 C 0,2 C 11,3 km/h (2 Bft) 100,00 %
25.02.2017 01:20 1,3 C 89 % 1019,4 hPa 0,0 l/m 7,9 km/h (2 Bft) S-SW 202 0 min 0,000 mm 0,0 UV-I 0 W/m -0,3 C -0,2 C 11,3 km/h (2 Bft) 98,00 %
25.02.2017 01:22 1,3 C 89 % 1019,5 hPa 0,0 l/m 7,2 km/h (2 Bft) W-SW 244 0 min 0,000 mm 0,0 UV-I 0 W/m -0,3 C 0,5 C 11,3 km/h (2 Bft) 98,00 %
25.02.2017 01:24 1,3 C 89 % 1019,5 hPa 0,0 l/m 6,7 km/h (2 Bft) SW 233 0 min 0,000 mm 0,0 UV-I 0 W/m -0,3 C 1,0 C 11,3 km/h (2 Bft) 95,12 %
25.02.2017 01:26 1,2 C 89 % 1019,5 hPa 0,0 l/m 7,9 km/h (2 Bft) W-SW 246 0 min 0,000 mm 0,0 UV-I 0 W/m -0,4 C -0,3 C 11,3 km/h (2 Bft) 100,00 %
25.02.2017 01:28 1,2 C 89 % 1019,6 hPa 0,0 l/m 8,4 km/h (2 Bft) SW 217 0 min 0,000 mm 0,0 UV-I 0 W/m -0,4 C -0,8 C 11,3 km/h (2 Bft) 94,55 %
25.02.2017 01:30 1,1 C 89 % 1019,6 hPa 0,0 l/m 7,6 km/h (2 Bft) SW 224 0 min 0,000 mm 0,0 UV-I 0 W/m -0,5 C -0,1 C 11,3 km/h (2 Bft) 97,44 %
25.02.2017 01:32 1,1 C 89 % 1019,6 hPa 0,0 l/m 8,9 km/h (2 Bft) SW 224 0 min 0,000 mm 0,0 UV-I 0 W/m -0,5 C -1,3 C 11,3 km/h (2 Bft) 94,64 %
25.02.2017 01:34 1,0 C 89 % 1019,7 hPa 0,0 l/m 7,7 km/h (2 Bft) SW 227 0 min 0,000 mm 0,0 UV-I 0 W/m -0,6 C -0,3 C 12,9 km/h (3 Bft) 95,74 %
25.02.2017 01:36 1,0 C 90 % 1019,7 hPa 0,0 l/m 7,8 km/h (2 Bft) SW 225 0 min 0,000 mm 0,0 UV-I 0 W/m -0,5 C -0,4 C 12,9 km/h (3 Bft) 95,12 %
25.02.2017 01:38 0,9 C 89 % 1019,7 hPa 0,0 l/m 7,5 km/h (2 Bft) SW 233 0 min 0,000 mm 0,0 UV-I 0 W/m -0,7 C -0,2 C 11,3 km/h (2 Bft) 92,45 %
25.02.2017 01:40 0,9 C 90 % 1019,8 hPa 0,0 l/m 7,6 km/h (2 Bft) SW 229 0 min 0,000 mm 0,0 UV-I 0 W/m -0,6 C -0,3 C 11,3 km/h (2 Bft) 95,74 %
25.02.2017 01:42 0,8 C 90 % 1019,8 hPa 0,0 l/m 8,6 km/h (2 Bft) S-SW 213 0 min 0,000 mm 0,0 UV-I 0 W/m -0,6 C -1,4 C 11,3 km/h (2 Bft) 94,74 %
25.02.2017 01:44 0,8 C 90 % 1019,8 hPa 0,0 l/m 7,9 km/h (2 Bft) SW 235 0 min 0,000 mm 0,0 UV-I 0 W/m -0,6 C -0,7 C 11,3 km/h (2 Bft) 92,45 %
25.02.2017 01:46 0,8 C 90 % 1019,8 hPa 0,0 l/m 5,5 km/h (1 Bft) S-SW 213 0 min 0,000 mm 0,0 UV-I 0 W/m -0,6 C 0,8 C 8,0 km/h (2 Bft) 97,56 %
25.02.2017 01:49 0,8 C 90 % 1019,8 hPa 0,0 l/m 5,6 km/h (1 Bft) SW 223 0 min 0,000 mm 0,0 UV-I 0 W/m -0,6 C 0,8 C 8,0 km/h (2 Bft) 93,24 %
25.02.2017 01:50 0,8 C 90 % 1019,8 hPa 0,0 l/m 7,2 km/h (2 Bft) SW 235 0 min 0,000 mm 0,0 UV-I 0 W/m -0,6 C -0,0 C 8,0 km/h (2 Bft) 92,31 %
25.02.2017 01:52 0,8 C 90 % 1019,8 hPa 0,0 l/m 6,0 km/h (2 Bft) SW 227 0 min 0,000 mm 0,0 UV-I 0 W/m -0,6 C 0,8 C 9,7 km/h (2 Bft) 91,49 %
25.02.2017 01:54 0,8 C 90 % 1019,7 hPa 0,0 l/m 5,9 km/h (2 Bft) SW 227 0 min 0,000 mm 0,0 UV-I 0 W/m -0,6 C 0,8 C 9,7 km/h (2 Bft) 95,12 %
25.02.2017 01:56 0,8 C 91 % 1019,8 hPa 0,0 l/m 5,5 km/h (1 Bft) SW 229 0 min 0,000 mm 0,0 UV-I 0 W/m -0,5 C 0,8 C 8,0 km/h (2 Bft) 92,11 %
25.02.2017 01:58 0,8 C 91 % 1019,8 hPa 0,0 l/m 7,6 km/h (2 Bft) SW 224 0 min 0,000 mm 0,0 UV-I 0 W/m -0,5 C -0,4 C 11,3 km/h (2 Bft) 94,34 %
25.02.2017 02:00 0,8 C 91 % 1019,8 hPa 0,0 l/m 7,1 km/h (2 Bft) SW 223 0 min 0,000 mm 0,0 UV-I 0 W/m -0,5 C 0,1 C 9,7 km/h (2 Bft) 96,43 %
25.02.2017 02:02 0,8 C 91 % 1019,8 hPa 0,0 l/m 5,7 km/h (1 Bft) W-SW 238 0 min 0,000 mm 0,0 UV-I 0 W/m -0,5 C 0,8 C 8,0 km/h (2 Bft) 94,44 %
25.02.2017 02:04 0,7 C 91 % 1019,8 hPa 0,0 l/m 6,3 km/h (2 Bft) SW 221 0 min 0,000 mm 0,0 UV-I 0 W/m -0,6 C 0,7 C 8,0 km/h (2 Bft) 96,00 %
25.02.2017 02:06 0,7 C 91 % 1019,8 hPa 0,0 l/m 6,1 km/h (2 Bft) SW 227 0 min 0,000 mm 0,0 UV-I 0 W/m -0,6 C 0,7 C 9,7 km/h (2 Bft) 96,00 %
25.02.2017 02:08 0,7 C 91 % 1019,8 hPa 0,0 l/m 6,8 km/h (2 Bft) SW 222 0 min 0,000 mm 0,0 UV-I 0 W/m -0,6 C 0,3 C 9,7 km/h (2 Bft) 96,15 %
25.02.2017 02:10 0,7 C 91 % 1019,8 hPa 0,0 l/m 6,7 km/h (2 Bft) W-SW 248 0 min 0,000 mm 0,0 UV-I 0 W/m -0,6 C 0,4 C 9,7 km/h (2 Bft) 100,00 %
25.02.2017 02:12 0,7 C 91 % 1019,8 hPa 0,0 l/m 7,9 km/h (2 Bft) SW 236 0 min 0,000 mm 0,0 UV-I 0 W/m -0,6 C -0,8 C 12,9 km/h (3 Bft) 98,00 %
25.02.2017 02:14 0,7 C 91 % 1019,9 hPa 0,0 l/m 8,0 km/h (2 Bft) SW 236 0 min 0,000 mm 0,0 UV-I 0 W/m -0,6 C -0,9 C 11,3 km/h (2 Bft) 100,00 %
25.02.2017 02:16 0,7 C 91 % 1019,9 hPa 0,0 l/m 8,1 km/h (2 Bft) SW 225 0 min 0,000 mm 0,0 UV-I 0 W/m -0,6 C -1,0 C 12,9 km/h (3 Bft) 97,56 %
25.02.2017 02:18 0,6 C 91 % 1019,9 hPa 0,0 l/m 8,0 km/h (2 Bft) SW 222 0 min 0,000 mm 0,0 UV-I 0 W/m -0,7 C -1,0 C 11,3 km/h (2 Bft) 98,00 %
25.02.2017 02:20 0,6 C 92 % 1019,9 hPa 0,0 l/m 8,6 km/h (2 Bft) SW 235 0 min 0,000 mm 0,0 UV-I 0 W/m -0,5 C -1,6 C 14,5 km/h (3 Bft) 97,87 %
25.02.2017 02:22 0,6 C 92 % 1019,9 hPa 0,0 l/m 9,0 km/h (2 Bft) W-SW 237 0 min 0,000 mm 0,0 UV-I 0 W/m -0,5 C -1,9 C 12,9 km/h (3 Bft) 100,00 %
25.02.2017 02:24 0,6 C 92 % 1019,9 hPa 0,0 l/m 11,0 km/h (2 Bft) W-SW 238 0 min 0,000 mm 0,0 UV-I 0 W/m -0,5 C -3,6 C 14,5 km/h (3 Bft) 97,73 %
25.02.2017 02:26 0,6 C 92 % 1019,9 hPa 0,0 l/m 10,2 km/h (2 Bft) W-SW 253 0 min 0,000 mm 0,0 UV-I 0 W/m -0,5 C -2,9 C 12,9 km/h (3 Bft) 100,00 %
25.02.2017 02:28 0,6 C 92 % 1019,9 hPa 0,0 l/m 9,6 km/h (2 Bft) SW 232 0 min 0,000 mm 0,0 UV-I 0 W/m -0,5 C -2,5 C 12,9 km/h (3 Bft) 98,00 %
25.02.2017 02:30 0,6 C 92 % 1019,9 hPa 0,0 l/m 9,7 km/h (2 Bft) SW 221 0 min 0,000 mm 0,0 UV-I 0 W/m -0,5 C -2,5 C 14,5 km/h (3 Bft) 98,21 %
25.02.2017 02:32 0,6 C 92 % 1019,9 hPa 0,0 l/m 7,9 km/h (2 Bft) SW 224 0 min 0,000 mm 0,0 UV-I 0 W/m -0,5 C -0,9 C 11,3 km/h (2 Bft) 100,00 %
25.02.2017 02:34 0,5 C 92 % 1019,9 hPa 0,0 l/m 7,0 km/h (2 Bft) W-SW 237 0 min 0,000 mm 0,0 UV-I 0 W/m -0,6 C -0,1 C 11,3 km/h (2 Bft) 97,37 %
25.02.2017 02:36 0,6 C 92 % 1019,9 hPa 0,0 l/m 8,8 km/h (2 Bft) W-SW 238 0 min 0,000 mm 0,0 UV-I 0 W/m -0,5 C -1,8 C 12,9 km/h (3 Bft) 100,00 %
25.02.2017 02:38 0,5 C 92 % 1019,9 hPa 0,0 l/m 8,4 km/h (2 Bft) SW 230 0 min 0,000 mm 0,0 UV-I 0 W/m -0,6 C -1,5 C 11,3 km/h (2 Bft) 87,80 %
25.02.2017 02:40 0,5 C 92 % 1019,9 hPa 0,0 l/m 8,9 km/h (2 Bft) SW 236 0 min 0,000 mm 0,0 UV-I 0 W/m -0,6 C -2,0 C 12,9 km/h (3 Bft) 100,00 %
25.02.2017 02:42 0,5 C 92 % 1019,9 hPa 0,0 l/m 8,6 km/h (2 Bft) W-SW 239 0 min 0,000 mm 0,0 UV-I 0 W/m -0,6 C -1,7 C 14,5 km/h (3 Bft) 98,11 %
25.02.2017 02:44 0,5 C 92 % 1019,9 hPa 0,0 l/m 8,7 km/h (2 Bft) SW 233 0 min 0,000 mm 0,0 UV-I 0 W/m -0,6 C -1,8 C 12,9 km/h (3 Bft) 95,12 %
25.02.2017 02:46 0,5 C 92 % 1019,9 hPa 0,0 l/m 7,8 km/h (2 Bft) SW 232 0 min 0,000 mm 0,0 UV-I 0 W/m -0,6 C -0,9 C 11,3 km/h (2 Bft) 100,00 %
25.02.2017 02:48 0,5 C 92 % 1019,9 hPa 0,0 l/m 7,3 km/h (2 Bft) SW 234 0 min 0,000 mm 0,0 UV-I 0 W/m -0,6 C -0,4 C 9,7 km/h (2 Bft) 97,22 %
25.02.2017 02:50 0,5 C 92 % 1019,9 hPa 0,0 l/m 8,7 km/h (2 Bft) SW 236 0 min 0,000 mm 0,0 UV-I 0 W/m -0,6 C -1,8 C 11,3 km/h (2 Bft) 100,00 %
25.02.2017 02:52 0,4 C 92 % 1019,9 hPa 0,0 l/m 8,6 km/h (2 Bft) S-SW 205 0 min 0,000 mm 0,0 UV-I 0 W/m -0,7 C -1,8 C 11,3 km/h (2 Bft) 95,45 %
25.02.2017 02:54 0,4 C 92 % 1019,9 hPa 0,0 l/m 7,9 km/h (2 Bft) SW 228 0 min 0,000 mm 0,0 UV-I 0 W/m -0,7 C -1,1 C 11,3 km/h (2 Bft) 100,00 %
25.02.2017 02:56 0,4 C 92 % 1019,9 hPa 0,0 l/m 8,4 km/h (2 Bft) SW 236 0 min 0,000 mm 0,0 UV-I 0 W/m -0,7 C -1,6 C 11,3 km/h (2 Bft) 98,21 %
25.02.2017 02:58 0,4 C 93 % 1020,0 hPa 0,0 l/m 9,9 km/h (2 Bft) SW 217 0 min 0,000 mm 0,0 UV-I 0 W/m -0,6 C -2,9 C 12,9 km/h (3 Bft) 97,73 %
25.02.2017 03:00 0,4 C 93 % 1020,0 hPa 0,0 l/m 7,1 km/h (2 Bft) W-SW 242 0 min 0,000 mm 0,0 UV-I 0 W/m -0,6 C -0,3 C 9,7 km/h (2 Bft) 100,00 %
25.02.2017 03:02 0,4 C 93 % 1020,0 hPa 0,0 l/m 7,6 km/h (2 Bft) S-SW 209 0 min 0,000 mm 0,0 UV-I 0 W/m -0,6 C -0,8 C 9,7 km/h (2 Bft) 94,00 %
25.02.2017 03:04 0,4 C 93 % 1020,0 hPa 0,0 l/m 8,4 km/h (2 Bft) W-SW 239 0 min 0,000 mm 0,0 UV-I 0 W/m -0,6 C -1,6 C 11,3 km/h (2 Bft) 96,00 %
25.02.2017 03:06 0,4 C 93 % 1020,1 hPa 0,0 l/m 7,0 km/h (2 Bft) W-SW 242 0 min 0,000 mm 0,0 UV-I 0 W/m -0,6 C -0,2 C 11,3 km/h (2 Bft) 93,62 %
25.02.2017 03:08 0,4 C 93 % 1020,1 hPa 0,0 l/m 7,0 km/h (2 Bft) SW 232 0 min 0,000 mm 0,0 UV-I 0 W/m -0,6 C -0,2 C 9,7 km/h (2 Bft) 96,00 %
25.02.2017 03:10 0,4 C 93 % 1020,1 hPa 0,0 l/m 8,4 km/h (2 Bft) W-SW 240 0 min 0,000 mm 0,0 UV-I 0 W/m -0,6 C -1,6 C 12,9 km/h (3 Bft) 95,12 %
25.02.2017 03:12 0,5 C 93 % 1020,1 hPa 0,0 l/m 9,4 km/h (2 Bft) SW 234 0 min 0,000 mm 0,0 UV-I 0 W/m -0,5 C -2,4 C 14,5 km/h (3 Bft) 96,23 %
25.02.2017 03:14 0,5 C 93 % 1020,1 hPa 0,0 l/m 7,9 km/h (2 Bft) S 187 0 min 0,000 mm 0,0 UV-I 0 W/m -0,5 C -1,0 C 11,3 km/h (2 Bft) 97,56 %
25.02.2017 03:16 0,5 C 93 % 1020,1 hPa 0,0 l/m 6,7 km/h (2 Bft) W-SW 243 0 min 0,000 mm 0,0 UV-I 0 W/m -0,5 C 0,2 C 9,7 km/h (2 Bft) 97,73 %
25.02.2017 03:18 0,6 C 93 % 1020,1 hPa 0,0 l/m 6,5 km/h (2 Bft) SW 231 0 min 0,000 mm 0,0 UV-I 0 W/m -0,4 C 0,5 C 11,3 km/h (2 Bft) 96,61 %
25.02.2017 03:20 0,6 C 93 % 1020,1 hPa 0,0 l/m 8,1 km/h (2 Bft) W-SW 239 0 min 0,000 mm 0,0 UV-I 0 W/m -0,4 C -1,1 C 12,9 km/h (3 Bft) 97,37 %
25.02.2017 03:22 0,5 C 93 % 1020,2 hPa 0,0 l/m 9,1 km/h (2 Bft) W-SW 241 0 min 0,000 mm 0,0 UV-I 0 W/m -0,5 C -2,1 C 12,9 km/h (3 Bft) 96,23 %
25.02.2017 03:24 0,5 C 93 % 1020,2 hPa 0,0 l/m 10,5 km/h (2 Bft) SW 225 0 min 0,000 mm 0,0 UV-I 0 W/m -0,5 C -3,3 C 14,5 km/h (3 Bft) 97,22 %
25.02.2017 03:26 0,5 C 93 % 1020,2 hPa 0,0 l/m 10,5 km/h (2 Bft) SW 233 0 min 0,000 mm 0,0 UV-I 0 W/m -0,5 C -3,3 C 14,5 km/h (3 Bft) 100,00 %
25.02.2017 03:28 0,5 C 93 % 1020,3 hPa 0,0 l/m 7,5 km/h (2 Bft) SW 227 0 min 0,000 mm 0,0 UV-I 0 W/m -0,5 C -0,6 C 11,3 km/h (2 Bft) 98,08 %
25.02.2017 03:30 0,6 C 93 % 1020,3 hPa 0,0 l/m 7,9 km/h (2 Bft) S-SW 211 0 min 0,000 mm 0,0 UV-I 0 W/m -0,4 C -0,9 C 11,3 km/h (2 Bft) 100,00 %
25.02.2017 03:32 0,5 C 93 % 1020,3 hPa 0,0 l/m 8,2 km/h (2 Bft) W-SW 240 0 min 0,000 mm 0,0 UV-I 0 W/m -0,5 C -1,3 C 12,9 km/h (3 Bft) 100,00 %
25.02.2017 03:34 0,5 C 93 % 1020,3 hPa 0,0 l/m 8,6 km/h (2 Bft) W-SW 258 0 min 0,000 mm 0,0 UV-I 0 W/m -0,5 C -1,7 C 14,5 km/h (3 Bft) 97,87 %
25.02.2017 03:36 0,5 C 93 % 1020,3 hPa 0,0 l/m 7,9 km/h (2 Bft) W-SW 249 0 min 0,000 mm 0,0 UV-I 0 W/m -0,5 C -1,0 C 12,9 km/h (3 Bft) 100,00 %
25.02.2017 03:38 0,6 C 93 % 1020,4 hPa 0,0 l/m 8,6 km/h (2 Bft) S-SW 200 0 min 0,000 mm 0,0 UV-I 0 W/m -0,4 C -1,6 C 11,3 km/h (2 Bft) 100,00 %
25.02.2017 03:40 0,6 C 93 % 1020,4 hPa 0,0 l/m 10,6 km/h (2 Bft) S-SW 212 0 min 0,000 mm 0,0 UV-I 0 W/m -0,4 C -3,3 C 14,5 km/h (3 Bft) 100,00 %
25.02.2017 03:42 0,6 C 93 % 1020,4 hPa 0,0 l/m 9,5 km/h (2 Bft) SW 217 0 min 0,000 mm 0,0 UV-I 0 W/m -0,4 C -2,4 C 12,9 km/h (3 Bft) 100,00 %
25.02.2017 03:44 0,6 C 93 % 1020,5 hPa 0,0 l/m 8,1 km/h (2 Bft) SW 232 0 min 0,000 mm 0,0 UV-I 0 W/m -0,4 C -1,1 C 11,3 km/h (2 Bft) 98,00 %
25.02.2017 03:46 0,6 C 93 % 1020,4 hPa 0,0 l/m 8,2 km/h (2 Bft) SW 223 0 min 0,000 mm 0,0 UV-I 0 W/m -0,4 C -1,2 C 12,9 km/h (3 Bft) 97,87 %
25.02.2017 03:48 0,6 C 92 % 1020,4 hPa 0,0 l/m 8,1 km/h (2 Bft) W-SW 245 0 min 0,000 mm 0,0 UV-I 0 W/m -0,5 C -1,1 C 14,5 km/h (3 Bft) 100,00 %
25.02.2017 03:50 0,6 C 92 % 1020,4 hPa 0,0 l/m 7,9 km/h (2 Bft) SW 223 0 min 0,000 mm 0,0 UV-I 0 W/m -0,5 C -0,9 C 11,3 km/h (2 Bft) 97,37 %
25.02.2017 03:52 0,6 C 92 % 1020,5 hPa 0,0 l/m 9,0 km/h (2 Bft) SW 227 0 min 0,000 mm 0,0 UV-I 0 W/m -0,5 C -1,9 C 12,9 km/h (3 Bft) 97,87 %
25.02.2017 03:54 0,7 C 92 % 1020,5 hPa 0,0 l/m 8,4 km/h (2 Bft) SW 232 0 min 0,000 mm 0,0 UV-I 0 W/m -0,4 C -1,3 C 11,3 km/h (2 Bft) 94,34 %
25.02.2017 03:56 0,7 C 92 % 1020,5 hPa 0,0 l/m 6,7 km/h (2 Bft) W-SW 244 0 min 0,000 mm 0,0 UV-I 0 W/m -0,4 C 0,4 C 11,3 km/h (2 Bft) 97,37 %
25.02.2017 03:58 0,7 C 92 % 1020,5 hPa 0,0 l/m 9,1 km/h (2 Bft) W-SW 256 0 min 0,000 mm 0,0 UV-I 0 W/m -0,4 C -1,9 C 12,9 km/h (3 Bft) 96,23 %
25.02.2017 04:00 0,7 C 92 % 1020,6 hPa 0,0 l/m 8,6 km/h (2 Bft) SW 221 0 min 0,000 mm 0,0 UV-I 0 W/m -0,4 C -1,5 C 11,3 km/h (2 Bft) 95,45 %
25.02.2017 04:02 0,7 C 92 % 1020,6 hPa 0,0 l/m 9,4 km/h (2 Bft) W-SW 250 0 min 0,000 mm 0,0 UV-I 0 W/m -0,4 C -2,2 C 12,9 km/h (3 Bft) 93,33 %
25.02.2017 04:04 0,7 C 92 % 1020,7 hPa 0,0 l/m 9,4 km/h (2 Bft) SW 229 0 min 0,000 mm 0,0 UV-I 0 W/m -0,4 C -2,2 C 12,9 km/h (3 Bft) 93,75 %
25.02.2017 04:06 0,7 C 92 % 1020,7 hPa 0,0 l/m 8,4 km/h (2 Bft) W-SW 240 0 min 0,000 mm 0,0 UV-I 0 W/m -0,4 C -1,3 C 12,9 km/h (3 Bft) 93,88 %
25.02.2017 04:08 0,7 C 92 % 1020,7 hPa 0,0 l/m 8,0 km/h (2 Bft) W-SW 252 0 min 0,000 mm 0,0 UV-I 0 W/m -0,4 C -0,9 C 12,9 km/h (3 Bft) 94,87 %
25.02.2017 04:10 0,7 C 92 % 1020,7 hPa 0,0 l/m 8,7 km/h (2 Bft) W 261 0 min 0,000 mm 0,0 UV-I 0 W/m -0,4 C -1,6 C 12,9 km/h (3 Bft) 94,64 %
25.02.2017 04:12 0,7 C 92 % 1020,7 hPa 0,0 l/m 9,4 km/h (2 Bft) SW 220 0 min 0,000 mm 0,0 UV-I 0 W/m -0,4 C -2,2 C 12,9 km/h (3 Bft) 97,73 %
25.02.2017 04:14 0,7 C 92 % 1020,7 hPa 0,0 l/m 9,8 km/h (2 Bft) W-SW 246 0 min 0,000 mm 0,0 UV-I 0 W/m -0,4 C -2,5 C 14,5 km/h (3 Bft) 96,30 %
25.02.2017 04:16 0,7 C 92 % 1020,7 hPa 0,0 l/m 9,1 km/h (2 Bft) SW 219 0 min 0,000 mm 0,0 UV-I 0 W/m -0,4 C -1,9 C 14,5 km/h (3 Bft) 95,74 %
25.02.2017 04:18 0,7 C 92 % 1020,7 hPa 0,0 l/m 8,3 km/h (2 Bft) W-SW 240 0 min 0,000 mm 0,0 UV-I 0 W/m -0,4 C -1,2 C 12,9 km/h (3 Bft) 95,74 %
25.02.2017 04:20 0,7 C 92 % 1020,7 hPa 0,0 l/m 7,7 km/h (2 Bft) SW 225 0 min 0,000 mm 0,0 UV-I 0 W/m -0,4 C -0,6 C 9,7 km/h (2 Bft) 91,49 %
25.02.2017 04:22 0,7 C 92 % 1020,7 hPa 0,0 l/m 6,7 km/h (2 Bft) SW 231 0 min 0,000 mm 0,0 UV-I 0 W/m -0,4 C 0,4 C 9,7 km/h (2 Bft) 97,37 %
25.02.2017 04:24 0,6 C 92 % 1020,8 hPa 0,0 l/m 7,4 km/h (2 Bft) SW 223 0 min 0,000 mm 0,0 UV-I 0 W/m -0,5 C -0,4 C 11,3 km/h (2 Bft) 94,00 %
25.02.2017 04:26 0,6 C 92 % 1020,8 hPa 0,0 l/m 7,6 km/h (2 Bft) W-SW 247 0 min 0,000 mm 0,0 UV-I 0 W/m -0,5 C -0,6 C 14,5 km/h (3 Bft) 97,87 %
25.02.2017 04:28 0,6 C 92 % 1020,8 hPa 0,0 l/m 6,6 km/h (2 Bft) W-SW 254 0 min 0,000 mm 0,0 UV-I 0 W/m -0,5 C 0,4 C 8,0 km/h (2 Bft) 94,74 %
25.02.2017 04:30 0,5 C 92 % 1020,9 hPa 0,0 l/m 7,7 km/h (2 Bft) SW 215 0 min 0,000 mm 0,0 UV-I 0 W/m -0,6 C -0,8 C 11,3 km/h (2 Bft) 92,45 %
25.02.2017 04:32 0,5 C 92 % 1020,9 hPa 0,0 l/m 8,5 km/h (2 Bft) W-SW 246 0 min 0,000 mm 0,0 UV-I 0 W/m -0,6 C -1,6 C 12,9 km/h (3 Bft) 98,00 %
25.02.2017 04:34 0,5 C 92 % 1020,9 hPa 0,0 l/m 8,3 km/h (2 Bft) W-SW 249 0 min 0,000 mm 0,0 UV-I 0 W/m -0,6 C -1,4 C 12,9 km/h (3 Bft) 98,00 %
25.02.2017 04:36 0,5 C 92 % 1021,0 hPa 0,0 l/m 8,6 km/h (2 Bft) W 263 0 min 0,000 mm 0,0 UV-I 0 W/m -0,6 C -1,7 C 14,5 km/h (3 Bft) 97,37 %
25.02.2017 04:38 0,5 C 92 % 1021,0 hPa 0,0 l/m 8,8 km/h (2 Bft) SW 228 0 min 0,000 mm 0,0 UV-I 0 W/m -0,6 C -1,9 C 12,9 km/h (3 Bft) 96,23 %
25.02.2017 04:40 0,5 C 92 % 1021,0 hPa 0,0 l/m 9,2 km/h (2 Bft) W-SW 237 0 min 0,000 mm 0,0 UV-I 0 W/m -0,6 C -2,2 C 14,5 km/h (3 Bft) 95,12 %
25.02.2017 04:42 0,5 C 92 % 1021,1 hPa 0,0 l/m 9,3 km/h (2 Bft) SW 236 0 min 0,000 mm 0,0 UV-I 0 W/m -0,6 C -2,3 C 12,9 km/h (3 Bft) 98,21 %
25.02.2017 04:44 0,5 C 92 % 1021,1 hPa 0,0 l/m 8,2 km/h (2 Bft) S-SW 197 0 min 0,000 mm 0,0 UV-I 0 W/m -0,6 C -1,3 C 12,9 km/h (3 Bft) 90,24 %
25.02.2017 04:46 0,4 C 92 % 1021,2 hPa 0,0 l/m 8,0 km/h (2 Bft) SW 233 0 min 0,000 mm 0,0 UV-I 0 W/m -0,7 C -1,2 C 11,3 km/h (2 Bft) 94,34 %
25.02.2017 04:48 0,4 C 92 % 1021,2 hPa 0,0 l/m 8,2 km/h (2 Bft) SW 234 0 min 0,000 mm 0,0 UV-I 0 W/m -0,7 C -1,4 C 16,1 km/h (3 Bft) 95,74 %
25.02.2017 04:50 0,4 C 92 % 1021,2 hPa 0,0 l/m 9,2 km/h (2 Bft) SW 227 0 min 0,000 mm 0,0 UV-I 0 W/m -0,7 C -2,3 C 12,9 km/h (3 Bft) 95,24 %
25.02.2017 04:52 0,4 C 92 % 1021,2 hPa 0,0 l/m 11,0 km/h (2 Bft) SW 232 0 min 0,000 mm 0,0 UV-I 0 W/m -0,7 C -3,8 C 16,1 km/h (3 Bft) 95,12 %
25.02.2017 04:54 0,3 C 92 % 1021,2 hPa 0,0 l/m 9,4 km/h (2 Bft) SW 227 0 min 0,000 mm 0,0 UV-I 0 W/m -0,8 C -2,6 C 12,9 km/h (3 Bft) 97,87 %
25.02.2017 04:56 0,3 C 92 % 1021,2 hPa 0,0 l/m 9,4 km/h (2 Bft) S-SW 210 0 min 0,000 mm 0,0 UV-I 0 W/m -0,8 C -2,6 C 14,5 km/h (3 Bft) 100,00 %
25.02.2017 04:58 0,3 C 92 % 1021,3 hPa 0,0 l/m 9,1 km/h (2 Bft) SW 234 0 min 0,000 mm 0,0 UV-I 0 W/m -0,8 C -2,4 C 11,3 km/h (2 Bft) 95,74 %
25.02.2017 05:00 0,3 C 92 % 1021,2 hPa 0,0 l/m 8,9 km/h (2 Bft) SW 232 0 min 0,000 mm 0,0 UV-I 0 W/m -0,8 C -2,2 C 14,5 km/h (3 Bft) 98,00 %
25.02.2017 05:02 0,3 C 92 % 1021,3 hPa 0,0 l/m 8,6 km/h (2 Bft) SW 230 0 min 0,000 mm 0,0 UV-I 0 W/m -0,8 C -1,9 C 14,5 km/h (3 Bft) 100,00 %
25.02.2017 05:04 0,2 C 92 % 1021,3 hPa 0,0 l/m 8,7 km/h (2 Bft) SW 235 0 min 0,000 mm 0,0 UV-I 0 W/m -0,9 C -2,1 C 11,3 km/h (2 Bft) 97,56 %
25.02.2017 05:06 0,2 C 92 % 1021,3 hPa 0,0 l/m 8,7 km/h (2 Bft) SW 227 0 min 0,000 mm 0,0 UV-I 0 W/m -0,9 C -2,1 C 12,9 km/h (3 Bft) 100,00 %
25.02.2017 05:08 0,2 C 93 % 1021,4 hPa 0,0 l/m 7,9 km/h (2 Bft) SW 220 0 min 0,000 mm 0,0 UV-I 0 W/m -0,8 C -1,3 C 12,9 km/h (3 Bft) 97,37 %
25.02.2017 05:10 0,2 C 92 % 1021,4 hPa 0,0 l/m 10,1 km/h (2 Bft) W-SW 237 0 min 0,000 mm 0,0 UV-I 0 W/m -0,9 C -3,3 C 14,5 km/h (3 Bft) 98,31 %
25.02.2017 05:12 0,2 C 92 % 1021,4 hPa 0,0 l/m 10,2 km/h (2 Bft) SW 225 0 min 0,000 mm 0,0 UV-I 0 W/m -0,9 C -3,4 C 14,5 km/h (3 Bft) 100,00 %
25.02.2017 05:14 0,2 C 92 % 1021,4 hPa 0,0 l/m 9,4 km/h (2 Bft) SW 229 0 min 0,000 mm 0,0 UV-I 0 W/m -0,9 C -2,7 C 12,9 km/h (3 Bft) 97,73 %
25.02.2017 05:16 0,2 C 92 % 1021,4 hPa 0,0 l/m 7,9 km/h (2 Bft) SW 225 0 min 0,000 mm 0,0 UV-I 0 W/m -0,9 C -1,3 C 11,3 km/h (2 Bft) 100,00 %
25.02.2017 05:18 0,2 C 93 % 1021,5 hPa 0,0 l/m 7,6 km/h (2 Bft) W-SW 250 0 min 0,000 mm 0,0 UV-I 0 W/m -0,8 C -1,0 C 11,3 km/h (2 Bft) 97,73 %
25.02.2017 05:20 0,2 C 93 % 1021,5 hPa 0,0 l/m 7,0 km/h (2 Bft) W-SW 242 0 min 0,000 mm 0,0 UV-I 0 W/m -0,8 C -0,4 C 9,7 km/h (2 Bft) 98,11 %
25.02.2017 05:22 0,3 C 93 % 1021,6 hPa 0,0 l/m 7,0 km/h (2 Bft) W-SW 244 0 min 0,000 mm 0,0 UV-I 0 W/m -0,7 C -0,3 C 11,3 km/h (2 Bft) 100,00 %
25.02.2017 05:24 0,2 C 93 % 1021,6 hPa 0,0 l/m 7,2 km/h (2 Bft) W-SW 248 0 min 0,000 mm 0,0 UV-I 0 W/m -0,8 C -0,6 C 11,3 km/h (2 Bft) 100,00 %
25.02.2017 05:26 0,3 C 93 % 1021,6 hPa 0,0 l/m 8,4 km/h (2 Bft) SW 227 0 min 0,000 mm 0,0 UV-I 0 W/m -0,7 C -1,7 C 11,3 km/h (2 Bft) 97,73 %
25.02.2017 05:28 0,3 C 93 % 1021,5 hPa 0,0 l/m 8,3 km/h (2 Bft) SW 234 0 min 0,000 mm 0,0 UV-I 0 W/m -0,7 C -1,6 C 14,5 km/h (3 Bft) 98,11 %
25.02.2017 05:30 0,3 C 92 % 1021,5 hPa 0,0 l/m 9,1 km/h (2 Bft) SW 230 0 min 0,000 mm 0,0 UV-I 0 W/m -0,8 C -2,4 C 12,9 km/h (3 Bft) 100,00 %
25.02.2017 05:32 0,2 C 93 % 1021,5 hPa 0,0 l/m 9,6 km/h (2 Bft) SW 227 0 min 0,000 mm 0,0 UV-I 0 W/m -0,8 C -2,9 C 14,5 km/h (3 Bft) 98,00 %
25.02.2017 05:34 0,2 C 93 % 1021,5 hPa 0,0 l/m 7,9 km/h (2 Bft) SW 232 0 min 0,000 mm 0,0 UV-I 0 W/m -0,8 C -1,3 C 9,7 km/h (2 Bft) 97,56 %
25.02.2017 05:36 0,2 C 92 % 1021,5 hPa 0,0 l/m 7,3 km/h (2 Bft) W-SW 245 0 min 0,000 mm 0,0 UV-I 0 W/m -0,9 C -0,7 C 9,7 km/h (2 Bft) 100,00 %
25.02.2017 05:38 0,2 C 92 % 1021,5 hPa 0,0 l/m 7,3 km/h (2 Bft) SW 234 0 min 0,000 mm 0,0 UV-I 0 W/m -0,9 C -0,7 C 9,7 km/h (2 Bft) 96,23 %
25.02.2017 05:40 0,2 C 92 % 1021,4 hPa 0,0 l/m 7,8 km/h (2 Bft) SW 227 0 min 0,000 mm 0,0 UV-I 0 W/m -0,9 C -1,2 C 9,7 km/h (2 Bft) 97,73 %
25.02.2017 05:42 0,2 C 93 % 1021,4 hPa 0,0 l/m 8,6 km/h (2 Bft) SW 230 0 min 0,000 mm 0,0 UV-I 0 W/m -0,8 C -2,0 C 12,9 km/h (3 Bft) 96,23 %
25.02.2017 05:44 0,2 C 93 % 1021,5 hPa 0,0 l/m 8,7 km/h (2 Bft) SW 234 0 min 0,000 mm 0,0 UV-I 0 W/m -0,8 C -2,1 C 12,9 km/h (3 Bft) 100,00 %
25.02.2017 05:46 0,2 C 93 % 1021,5 hPa 0,0 l/m 8,5 km/h (2 Bft) SW 229 0 min 0,000 mm 0,0 UV-I 0 W/m -0,8 C -1,9 C 11,3 km/h (2 Bft) 98,04 %
25.02.2017 05:48 0,2 C 93 % 1021,6 hPa 0,0 l/m 7,8 km/h (2 Bft) W-SW 257 0 min 0,000 mm 0,0 UV-I 0 W/m -0,8 C -1,2 C 12,9 km/h (3 Bft) 96,00 %
25.02.2017 05:50 0,2 C 93 % 1021,6 hPa 0,0 l/m 8,3 km/h (2 Bft) W-SW 246 0 min 0,000 mm 0,0 UV-I 0 W/m -0,8 C -1,7 C 12,9 km/h (3 Bft) 100,00 %
25.02.2017 05:52 0,2 C 93 % 1021,6 hPa 0,0 l/m 6,7 km/h (2 Bft) W-SW 242 0 min 0,000 mm 0,0 UV-I 0 W/m -0,8 C -0,1 C 11,3 km/h (2 Bft) 100,00 %
25.02.2017 05:54 0,2 C 93 % 1021,6 hPa 0,0 l/m 6,5 km/h (2 Bft) W-SW 240 0 min 0,000 mm 0,0 UV-I 0 W/m -0,8 C 0,1 C 9,7 km/h (2 Bft) 98,11 %
25.02.2017 05:56 0,2 C 93 % 1021,6 hPa 0,0 l/m 6,0 km/h (2 Bft) SW 224 0 min 0,000 mm 0,0 UV-I 0 W/m -0,8 C 0,2 C 9,7 km/h (2 Bft) 100,00 %
25.02.2017 05:58 0,2 C 93 % 1021,6 hPa 0,0 l/m 7,5 km/h (2 Bft) SW 232 0 min 0,000 mm 0,0 UV-I 0 W/m -0,8 C -0,9 C 11,3 km/h (2 Bft) 100,00 %
25.02.2017 06:00 0,2 C 93 % 1021,6 hPa 0,0 l/m 8,0 km/h (2 Bft) SW 225 0 min 0,000 mm 0,0 UV-I 0 W/m -0,8 C -1,4 C 11,3 km/h (2 Bft) 98,21 %
25.02.2017 06:02 0,2 C 93 % 1021,7 hPa 0,0 l/m 9,9 km/h (2 Bft) SW 216 0 min 0,000 mm 0,0 UV-I 0 W/m -0,8 C -3,1 C 16,1 km/h (3 Bft) 97,37 %
25.02.2017 06:04 0,2 C 93 % 1021,6 hPa 0,0 l/m 8,7 km/h (2 Bft) W-SW 252 0 min 0,000 mm 0,0 UV-I 0 W/m -0,8 C -2,1 C 12,9 km/h (3 Bft) 94,00 %
25.02.2017 06:06 0,3 C 93 % 1021,7 hPa 0,0 l/m 7,6 km/h (2 Bft) SW 217 0 min 0,000 mm 0,0 UV-I 0 W/m -0,7 C -0,9 C 11,3 km/h (2 Bft) 100,00 %
25.02.2017 06:08 0,3 C 93 % 1021,7 hPa 0,0 l/m 9,5 km/h (2 Bft) W-SW 252 0 min 0,000 mm 0,0 UV-I 0 W/m -0,7 C -2,7 C 14,5 km/h (3 Bft) 90,24 %
25.02.2017 06:10 0,3 C 93 % 1021,8 hPa 0,0 l/m 7,0 km/h (2 Bft) SW 231 0 min 0,000 mm 0,0 UV-I 0 W/m -0,7 C -0,3 C 11,3 km/h (2 Bft) 94,92 %
25.02.2017 06:12 0,3 C 92 % 1021,8 hPa 0,0 l/m 5,9 km/h (2 Bft) SW 219 0 min 0,000 mm 0,0 UV-I 0 W/m -0,8 C 0,3 C 8,0 km/h (2 Bft) 94,74 %
25.02.2017 06:14 0,2 C 93 % 1021,8 hPa 0,0 l/m 7,4 km/h (2 Bft) W-SW 238 0 min 0,000 mm 0,0 UV-I 0 W/m -0,8 C -0,8 C 11,3 km/h (2 Bft) 92,45 %
25.02.2017 06:16 0,2 C 92 % 1021,8 hPa 0,0 l/m 6,6 km/h (2 Bft) W-SW 240 0 min 0,000 mm 0,0 UV-I 0 W/m -0,9 C 0,0 C 9,7 km/h (2 Bft) 96,23 %
25.02.2017 06:18 0,2 C 92 % 1021,8 hPa 0,0 l/m 7,3 km/h (2 Bft) SW 232 0 min 0,000 mm 0,0 UV-I 0 W/m -0,9 C -0,7 C 12,9 km/h (3 Bft) 92,68 %
25.02.2017 06:20 0,2 C 93 % 1021,9 hPa 0,0 l/m 7,0 km/h (2 Bft) W-SW 237 0 min 0,000 mm 0,0 UV-I 0 W/m -0,8 C -0,4 C 9,7 km/h (2 Bft) 93,62 %
25.02.2017 06:22 0,2 C 92 % 1021,9 hPa 0,0 l/m 6,3 km/h (2 Bft) SW 227 0 min 0,000 mm 0,0 UV-I 0 W/m -0,9 C 0,2 C 9,7 km/h (2 Bft) 95,74 %
25.02.2017 06:24 0,2 C 92 % 1021,9 hPa 0,0 l/m 7,0 km/h (2 Bft) W-SW 250 0 min 0,000 mm 0,0 UV-I 0 W/m -0,9 C -0,4 C 11,3 km/h (2 Bft) 94,34 %
25.02.2017 06:26 0,1 C 92 % 1022,0 hPa 0,0 l/m 7,3 km/h (2 Bft) W-SW 238 0 min 0,000 mm 0,0 UV-I 0 W/m -1,0 C -0,8 C 11,3 km/h (2 Bft) 97,37 %
25.02.2017 06:28 0,1 C 93 % 1022,0 hPa 0,0 l/m 6,7 km/h (2 Bft) W-SW 242 0 min 0,000 mm 0,0 UV-I 0 W/m -0,9 C -0,2 C 11,3 km/h (2 Bft) 96,23 %
25.02.2017 06:30 0,2 C 93 % 1022,0 hPa 0,0 l/m 7,9 km/h (2 Bft) W-SW 250 0 min 0,000 mm 0,0 UV-I 0 W/m -0,8 C -1,3 C 12,9 km/h (3 Bft) 95,74 %
25.02.2017 06:32 0,2 C 93 % 1022,0 hPa 0,0 l/m 8,5 km/h (2 Bft) W-SW 251 0 min 0,000 mm 0,0 UV-I 0 W/m -0,8 C -1,9 C 12,9 km/h (3 Bft) 94,74 %
25.02.2017 06:34 0,2 C 93 % 1022,0 hPa 0,0 l/m 8,0 km/h (2 Bft) W-SW 256 0 min 0,000 mm 0,0 UV-I 0 W/m -0,8 C -1,4 C 12,9 km/h (3 Bft) 92,00 %
25.02.2017 06:36 0,3 C 93 % 1022,0 hPa 0,0 l/m 6,4 km/h (2 Bft) W-SW 240 0 min 0,000 mm 0,0 UV-I 0 W/m -0,7 C 0,3 C 8,0 km/h (2 Bft) 97,87 %
25.02.2017 06:38 0,3 C 93 % 1022,1 hPa 0,0 l/m 7,7 km/h (2 Bft) SW 233 0 min 0,000 mm 0,0 UV-I 0 W/m -0,7 C -1,0 C 12,9 km/h (3 Bft) 94,34 %
25.02.2017 06:40 0,3 C 93 % 1022,1 hPa 0,0 l/m 8,6 km/h (2 Bft) SW 231 0 min 0,000 mm 0,0 UV-I 1 W/m -0,7 C -1,9 C 12,9 km/h (3 Bft) 100,00 %
25.02.2017 06:42 0,3 C 93 % 1022,1 hPa 0,0 l/m 7,2 km/h (2 Bft) SW 224 0 min 0,000 mm 0,0 UV-I 5 W/m -0,7 C -0,5 C 9,7 km/h (2 Bft) 95,52 %
25.02.2017 06:44 0,3 C 93 % 1022,1 hPa 0,0 l/m 7,6 km/h (2 Bft) SW 236 0 min 0,000 mm 0,0 UV-I 5 W/m -0,7 C -0,9 C 14,5 km/h (3 Bft) 96,00 %
25.02.2017 06:46 0,3 C 93 % 1022,1 hPa 0,0 l/m 7,1 km/h (2 Bft) W-SW 244 0 min 0,000 mm 0,0 UV-I 5 W/m -0,7 C -0,4 C 11,3 km/h (2 Bft) 100,00 %
25.02.2017 06:48 0,4 C 93 % 1022,2 hPa 0,0 l/m 7,1 km/h (2 Bft) W-SW 243 0 min 0,000 mm 0,0 UV-I 5 W/m -0,6 C -0,3 C 12,9 km/h (3 Bft) 100,00 %
25.02.2017 06:50 0,4 C 92 % 1022,2 hPa 0,0 l/m 5,7 km/h (1 Bft) W-SW 244 0 min 0,000 mm 0,0 UV-I 7 W/m -0,7 C 0,4 C 11,3 km/h (2 Bft) 100,00 %
25.02.2017 06:52 0,4 C 92 % 1022,2 hPa 0,0 l/m 5,2 km/h (1 Bft) SW 233 0 min 0,000 mm 0,0 UV-I 7 W/m -0,7 C 0,4 C 6,4 km/h (2 Bft) 100,00 %
25.02.2017 06:54 0,4 C 92 % 1022,2 hPa 0,0 l/m 4,7 km/h (1 Bft) W-SW 246 0 min 0,000 mm 0,0 UV-I 7 W/m -0,7 C 0,4 C 6,4 km/h (2 Bft) 100,00 %
25.02.2017 06:56 0,3 C 92 % 1022,3 hPa 0,0 l/m 4,5 km/h (1 Bft) SW 233 0 min 0,000 mm 0,0 UV-I 9 W/m -0,8 C 0,3 C 6,4 km/h (2 Bft) 100,00 %
25.02.2017 06:58 0,3 C 92 % 1022,2 hPa 0,0 l/m 5,6 km/h (1 Bft) SW 219 0 min 0,000 mm 0,0 UV-I 9 W/m -0,8 C 0,3 C 8,0 km/h (2 Bft) 100,00 %
25.02.2017 07:00 0,3 C 92 % 1022,4 hPa 0,0 l/m 5,7 km/h (1 Bft) SW 227 0 min 0,000 mm 0,0 UV-I 11 W/m -0,8 C 0,3 C 8,0 km/h (2 Bft) 97,56 %
25.02.2017 07:02 0,2 C 92 % 1022,5 hPa 0,0 l/m 6,5 km/h (2 Bft) W-SW 244 0 min 0,000 mm 0,0 UV-I 11 W/m -0,9 C 0,1 C 9,7 km/h (2 Bft) 98,00 %
25.02.2017 07:04 0,2 C 93 % 1022,5 hPa 0,0 l/m 6,0 km/h (2 Bft) W-SW 240 2 min 0,000 mm 0,0 UV-I 13 W/m -0,8 C 0,2 C 8,0 km/h (2 Bft) 97,37 %
25.02.2017 07:06 0,2 C 92 % 1022,5 hPa 0,0 l/m 6,8 km/h (2 Bft) SW 235 2 min 0,000 mm 0,0 UV-I 14 W/m -0,9 C -0,2 C 11,3 km/h (2 Bft) 100,00 %
25.02.2017 07:08 0,2 C 93 % 1022,6 hPa 0,0 l/m 5,9 km/h (2 Bft) SW 229 0 min 0,000 mm 0,0 UV-I 16 W/m -0,8 C 0,2 C 8,0 km/h (2 Bft) 98,11 %
25.02.2017 07:10 0,2 C 92 % 1022,6 hPa 0,0 l/m 6,7 km/h (2 Bft) SW 215 0 min 0,000 mm 0,0 UV-I 18 W/m -0,9 C -0,1 C 9,7 km/h (2 Bft) 98,00 %
25.02.2017 07:12 0,2 C 93 % 1022,6 hPa 0,0 l/m 5,4 km/h (1 Bft) SW 220 0 min 0,000 mm 0,0 UV-I 19 W/m -0,8 C 0,2 C 8,0 km/h (2 Bft) 100,00 %
25.02.2017 07:14 0,2 C 93 % 1022,7 hPa 0,0 l/m 5,4 km/h (1 Bft) SW 236 0 min 0,000 mm 0,0 UV-I 21 W/m -0,8 C 0,2 C 8,0 km/h (2 Bft) 97,37 %
25.02.2017 07:16 0,2 C 93 % 1022,7 hPa 0,0 l/m 4,9 km/h (1 Bft) SW 234 0 min 0,000 mm 0,0 UV-I 21 W/m -0,8 C 0,2 C 6,4 km/h (2 Bft) 100,00 %
25.02.2017 07:18 0,3 C 93 % 1022,8 hPa 0,0 l/m 4,1 km/h (1 Bft) W-SW 240 0 min 0,000 mm 0,0 UV-I 22 W/m -0,7 C 0,3 C 6,4 km/h (2 Bft) 97,87 %
25.02.2017 07:20 0,2 C 93 % 1022,8 hPa 0,0 l/m 4,7 km/h (1 Bft) W-SW 252 0 min 0,000 mm 0,0 UV-I 25 W/m -0,8 C 0,2 C 8,0 km/h (2 Bft) 98,21 %
25.02.2017 07:22 0,2 C 92 % 1022,8 hPa 0,0 l/m 4,1 km/h (1 Bft) W-SW 241 0 min 0,000 mm 0,0 UV-I 28 W/m -0,9 C 0,2 C 8,0 km/h (2 Bft) 100,00 %
25.02.2017 07:24 0,2 C 93 % 1022,9 hPa 0,0 l/m 4,8 km/h (1 Bft) SW 216 0 min 0,000 mm 0,0 UV-I 28 W/m -0,8 C 0,2 C 6,4 km/h (2 Bft) 98,11 %
25.02.2017 07:26 0,3 C 92 % 1022,9 hPa 0,0 l/m 4,3 km/h (1 Bft) W-SW 255 0 min 0,000 mm 0,0 UV-I 28 W/m -0,8 C 0,3 C 6,4 km/h (2 Bft) 100,00 %
25.02.2017 07:28 0,2 C 92 % 1023,0 hPa 0,0 l/m 2,5 km/h (1 Bft) W-SW 255 0 min 0,000 mm 0,0 UV-I 28 W/m -0,9 C 0,2 C 6,4 km/h (2 Bft) 96,00 %
25.02.2017 07:30 0,2 C 93 % 1023,0 hPa 0,0 l/m 3,8 km/h (1 Bft) W 277 0 min 0,000 mm 0,0 UV-I 31 W/m -0,8 C 0,2 C 4,8 km/h (1 Bft) 96,00 %
25.02.2017 07:32 0,2 C 92 % 1023,0 hPa 0,0 l/m 2,8 km/h (1 Bft) W 277 0 min 0,000 mm 0,0 UV-I 33 W/m -0,9 C 0,2 C 4,8 km/h (1 Bft) 95,74 %
25.02.2017 07:34 0,2 C 92 % 1023,1 hPa 0,0 l/m 2,4 km/h (1 Bft) W 277 0 min 0,000 mm 0,0 UV-I 36 W/m -0,9 C 0,2 C 3,2 km/h (1 Bft) 96,00 %
25.02.2017 07:36 0,1 C 92 % 1023,1 hPa 0,0 l/m 1,2 km/h (1 Bft) W 277 0 min 0,000 mm 0,0 UV-I 37 W/m -1,0 C 0,1 C 3,2 km/h (1 Bft) 98,00 %
25.02.2017 07:38 -0,1 C 92 % 1023,2 hPa 0,0 l/m 0,3 km/h (0 Bft) W 277 0 min 0,000 mm 0,0 UV-I 41 W/m -1,2 C -0,1 C 1,6 km/h (1 Bft) 96,00 %
25.02.2017 07:40 -0,2 C 93 % 1023,1 hPa 0,0 l/m 1,2 km/h (1 Bft) W 277 0 min 0,000 mm 0,0 UV-I 36 W/m -1,2 C -0,2 C 3,2 km/h (1 Bft) 97,56 %
25.02.2017 07:42 -0,2 C 93 % 1023,2 hPa 0,0 l/m 1,4 km/h (1 Bft) W 277 0 min 0,000 mm 0,0 UV-I 55 W/m -1,2 C -0,2 C 3,2 km/h (1 Bft) 94,34 %
25.02.2017 07:44 -0,2 C 93 % 1023,2 hPa 0,0 l/m 2,3 km/h (1 Bft) W 277 2 min 0,000 mm 0,0 UV-I 99 W/m -1,2 C -0,2 C 3,2 km/h (1 Bft) 94,74 %
25.02.2017 07:46 -0,2 C 93 % 1023,2 hPa 0,0 l/m 1,8 km/h (1 Bft) W 277 2 min 0,000 mm 0,0 UV-I 109 W/m -1,2 C -0,2 C 3,2 km/h (1 Bft) 96,00 %
25.02.2017 07:48 -0,2 C 93 % 1023,2 hPa 0,0 l/m 0,2 km/h (0 Bft) W 277 2 min 0,000 mm 0,0 UV-I 113 W/m -1,2 C -0,2 C 1,6 km/h (1 Bft) 98,00 %
25.02.2017 07:50 -0,1 C 94 % 1023,2 hPa 0,0 l/m 0,0 km/h (0 Bft) W 277 2 min 0,000 mm 0,0 UV-I 119 W/m -0,9 C -0,1 C 1,6 km/h (1 Bft) 95,74 %
25.02.2017 07:52 -0,1 C 94 % 1023,2 hPa 0,0 l/m 1,0 km/h (0 Bft) W 277 2 min 0,000 mm 0,0 UV-I 116 W/m -0,9 C -0,1 C 3,2 km/h (1 Bft) 96,00 %
25.02.2017 07:54 -0,1 C 94 % 1023,3 hPa 0,0 l/m 0,0 km/h (0 Bft) W 277 2 min 0,000 mm 0,0 UV-I 101 W/m -0,9 C -0,1 C 1,6 km/h (1 Bft) 97,56 %
25.02.2017 07:56 0,0 C 94 % 1023,3 hPa 0,0 l/m 0,6 km/h (0 Bft) W 277 2 min 0,000 mm 0,0 UV-I 115 W/m -0,8 C 0,0 C 1,6 km/h (1 Bft) 97,56 %
25.02.2017 07:58 0,1 C 94 % 1023,3 hPa 0,0 l/m 1,2 km/h (1 Bft) W 277 2 min 0,000 mm 0,0 UV-I 139 W/m -0,7 C 0,1 C 3,2 km/h (1 Bft) 98,11 %
25.02.2017 08:00 0,2 C 94 % 1023,3 hPa 0,0 l/m 4,2 km/h (1 Bft) SW 223 2 min 0,025 mm 0,0 UV-I 108 W/m -0,6 C 0,2 C 6,4 km/h (2 Bft) 100,00 %
25.02.2017 08:02 0,3 C 94 % 1023,3 hPa 0,0 l/m 4,6 km/h (1 Bft) W-SW 245 2 min 0,000 mm 0,0 UV-I 116 W/m -0,5 C 0,3 C 6,4 km/h (2 Bft) 97,87 %
25.02.2017 08:04 0,4 C 94 % 1023,3 hPa 0,0 l/m 3,5 km/h (1 Bft) W 273 2 min 0,000 mm 0,0 UV-I 156 W/m -0,5 C 0,4 C 6,4 km/h (2 Bft) 98,00 %
25.02.2017 08:06 0,5 C 93 % 1023,3 hPa 0,0 l/m 4,5 km/h (1 Bft) W-SW 254 2 min 0,000 mm 0,0 UV-I 161 W/m -0,5 C 0,5 C 6,4 km/h (2 Bft) 97,44 %
25.02.2017 08:08 0,6 C 93 % 1023,3 hPa 0,0 l/m 5,0 km/h (1 Bft) W-SW 253 2 min 0,000 mm 0,0 UV-I 167 W/m -0,4 C 0,6 C 11,3 km/h (2 Bft) 100,00 %
25.02.2017 08:10 0,7 C 93 % 1023,3 hPa 0,0 l/m 4,7 km/h (1 Bft) W-SW 243 2 min 0,000 mm 0,0 UV-I 168 W/m -0,3 C 0,7 C 8,0 km/h (2 Bft) 100,00 %
25.02.2017 08:12 0,8 C 93 % 1023,3 hPa 0,0 l/m 6,0 km/h (2 Bft) W-SW 244 2 min 0,000 mm 0,0 UV-I 177 W/m -0,2 C 0,8 C 11,3 km/h (2 Bft) 98,00 %
25.02.2017 08:14 0,9 C 92 % 1023,3 hPa 0,0 l/m 4,1 km/h (1 Bft) W-SW 241 2 min 0,000 mm 0,0 UV-I 182 W/m -0,2 C 0,9 C 6,4 km/h (2 Bft) 98,00 %
25.02.2017 08:16 1,0 C 92 % 1023,4 hPa 0,0 l/m 5,3 km/h (1 Bft) W-SW 248 2 min 0,000 mm 0,0 UV-I 188 W/m -0,2 C 1,0 C 8,0 km/h (2 Bft) 100,00 %
25.02.2017 08:18 1,1 C 92 % 1023,4 hPa 0,0 l/m 4,4 km/h (1 Bft) W-SW 249 2 min 0,000 mm 0,0 UV-I 193 W/m -0,1 C 1,1 C 6,4 km/h (2 Bft) 97,87 %
25.02.2017 08:20 1,1 C 91 % 1023,4 hPa 0,0 l/m 3,9 km/h (1 Bft) W-SW 242 2 min 0,000 mm 0,0 UV-I 199 W/m -0,2 C 1,1 C 6,4 km/h (2 Bft) 95,74 %
25.02.2017 08:22 1,2 C 91 % 1023,5 hPa 0,0 l/m 4,1 km/h (1 Bft) SW 232 2 min 0,000 mm 0,0 UV-I 205 W/m -0,1 C 1,2 C 6,4 km/h (2 Bft) 97,37 %
25.02.2017 08:24 1,3 C 91 % 1023,5 hPa 0,0 l/m 6,1 km/h (2 Bft) W-SW 254 2 min 0,000 mm 0,0 UV-I 210 W/m -0,0 C 1,3 C 11,3 km/h (2 Bft) 92,45 %
25.02.2017 08:26 1,4 C 91 % 1023,5 hPa 0,0 l/m 3,8 km/h (1 Bft) W-SW 254 2 min 0,000 mm 0,0 UV-I 214 W/m 0,1 C 1,4 C 6,4 km/h (2 Bft) 95,12 %
25.02.2017 08:28 1,5 C 90 % 1023,5 hPa 0,0 l/m 4,6 km/h (1 Bft) W-SW 254 2 min 0,000 mm 0,0 UV-I 219 W/m 0,0 C 1,5 C 6,4 km/h (2 Bft) 97,87 %
25.02.2017 08:30 1,6 C 90 % 1023,5 hPa 0,0 l/m 5,0 km/h (1 Bft) SW 234 2 min 0,000 mm 0,0 UV-I 224 W/m 0,1 C 1,6 C 8,0 km/h (2 Bft) 93,62 %
25.02.2017 08:32 1,7 C 90 % 1023,6 hPa 0,0 l/m 5,6 km/h (1 Bft) SW 225 2 min 0,000 mm 0,0 UV-I 230 W/m 0,2 C 1,7 C 8,0 km/h (2 Bft) 94,00 %
25.02.2017 08:34 1,7 C 90 % 1023,6 hPa 0,0 l/m 5,6 km/h (1 Bft) SW 220 2 min 0,000 mm 0,0 UV-I 235 W/m 0,2 C 1,7 C 9,7 km/h (2 Bft) 97,87 %
25.02.2017 08:36 1,8 C 90 % 1023,6 hPa 0,0 l/m 3,2 km/h (1 Bft) SW 220 2 min 0,000 mm 0,0 UV-I 240 W/m 0,3 C 1,8 C 4,8 km/h (1 Bft) 95,74 %
25.02.2017 08:38 1,8 C 90 % 1023,6 hPa 0,0 l/m 4,1 km/h (1 Bft) W-SW 242 2 min 0,000 mm 0,0 UV-I 246 W/m 0,3 C 1,8 C 8,0 km/h (2 Bft) 95,74 %
25.02.2017 08:40 1,9 C 89 % 1023,7 hPa 0,0 l/m 4,6 km/h (1 Bft) W 261 2 min 0,000 mm 0,0 UV-I 252 W/m 0,3 C 1,9 C 9,7 km/h (2 Bft) 95,74 %
25.02.2017 08:42 1,9 C 89 % 1023,7 hPa 0,0 l/m 5,1 km/h (1 Bft) SW 223 2 min 0,000 mm 0,0 UV-I 257 W/m 0,3 C 1,9 C 8,0 km/h (2 Bft) 93,62 %
25.02.2017 08:44 2,0 C 88 % 1023,7 hPa 0,0 l/m 5,4 km/h (1 Bft) W-SW 242 2 min 0,000 mm 0,0 UV-I 263 W/m 0,2 C 2,0 C 6,4 km/h (2 Bft) 93,62 %
25.02.2017 08:46 2,1 C 88 % 1023,7 hPa 0,0 l/m 5,6 km/h (1 Bft) W 264 2 min 0,000 mm 0,0 UV-I 268 W/m 0,3 C 2,1 C 11,3 km/h (2 Bft) 95,83 %
25.02.2017 08:48 2,2 C 88 % 1023,8 hPa 0,0 l/m 6,4 km/h (2 Bft) W-SW 245 2 min 0,000 mm 0,0 UV-I 274 W/m 0,4 C 2,2 C 11,3 km/h (2 Bft) 97,96 %
25.02.2017 08:50 2,2 C 88 % 1023,8 hPa 0,0 l/m 8,0 km/h (2 Bft) W 260 2 min 0,000 mm 0,0 UV-I 280 W/m 0,4 C 0,7 C 12,9 km/h (3 Bft) 100,00 %
25.02.2017 08:52 2,3 C 88 % 1023,8 hPa 0,0 l/m 4,8 km/h (1 Bft) SW 234 2 min 0,000 mm 0,0 UV-I 287 W/m 0,5 C 2,3 C 8,0 km/h (2 Bft) 100,00 %
25.02.2017 08:54 2,4 C 87 % 1023,9 hPa 0,0 l/m 4,6 km/h (1 Bft) SW 227 2 min 0,000 mm 0,0 UV-I 297 W/m 0,5 C 2,4 C 6,4 km/h (2 Bft) 94,00 %
25.02.2017 08:56 2,4 C 87 % 1023,9 hPa 0,0 l/m 4,4 km/h (1 Bft) SW 220 2 min 0,000 mm 0,0 UV-I 309 W/m 0,5 C 2,4 C 8,0 km/h (2 Bft) 97,87 %
25.02.2017 08:58 2,5 C 87 % 1023,9 hPa 0,0 l/m 5,6 km/h (1 Bft) W-SW 240 2 min 0,000 mm 0,0 UV-I 316 W/m 0,6 C 2,5 C 8,0 km/h (2 Bft) 96,00 %
25.02.2017 09:00 2,6 C 86 % 1023,8 hPa 0,0 l/m 6,1 km/h (2 Bft) W 277 2 min 0,077 mm 0,0 UV-I 319 W/m 0,5 C 2,6 C 8,0 km/h (2 Bft) 92,11 %
25.02.2017 09:02 2,6 C 86 % 1023,9 hPa 0,0 l/m 5,1 km/h (1 Bft) W-SW 253 2 min 0,000 mm 0,1 UV-I 311 W/m 0,5 C 2,6 C 9,7 km/h (2 Bft) 97,87 %
25.02.2017 09:04 2,7 C 86 % 1023,9 hPa 0,0 l/m 5,5 km/h (1 Bft) SW 223 2 min 0,000 mm 0,5 UV-I 309 W/m 0,6 C 2,7 C 9,7 km/h (2 Bft) 96,23 %
25.02.2017 09:06 2,8 C 86 % 1023,9 hPa 0,0 l/m 6,3 km/h (2 Bft) W-SW 238 2 min 0,000 mm 0,5 UV-I 321 W/m 0,7 C 2,8 C 9,7 km/h (2 Bft) 100,00 %
25.02.2017 09:08 2,9 C 85 % 1023,9 hPa 0,0 l/m 9,7 km/h (2 Bft) W-SW 242 2 min 0,000 mm 0,5 UV-I 331 W/m 0,6 C -0,0 C 16,1 km/h (3 Bft) 97,73 %
25.02.2017 09:10 2,9 C 85 % 1023,9 hPa 0,0 l/m 9,8 km/h (2 Bft) W-SW 240 2 min 0,000 mm 0,5 UV-I 339 W/m 0,6 C -0,1 C 14,5 km/h (3 Bft) 98,11 %
25.02.2017 09:12 2,9 C 85 % 1023,9 hPa 0,0 l/m 8,9 km/h (2 Bft) SW 236 2 min 0,000 mm 0,5 UV-I 344 W/m 0,6 C 0,6 C 12,9 km/h (3 Bft) 98,00 %
25.02.2017 09:14 3,1 C 85 % 1023,9 hPa 0,0 l/m 6,8 km/h (2 Bft) SW 229 2 min 0,000 mm 0,5 UV-I 343 W/m 0,8 C 2,7 C 9,7 km/h (2 Bft) 94,74 %
25.02.2017 09:16 3,1 C 84 % 1024,0 hPa 0,0 l/m 8,9 km/h (2 Bft) SW 236 2 min 0,000 mm 0,5 UV-I 354 W/m 0,7 C 0,8 C 12,9 km/h (3 Bft) 96,61 %
25.02.2017 09:18 3,2 C 85 % 1024,0 hPa 0,0 l/m 6,0 km/h (2 Bft) W-SW 249 2 min 0,000 mm 0,6 UV-I 361 W/m 0,9 C 3,2 C 9,7 km/h (2 Bft) 100,00 %
25.02.2017 09:20 3,2 C 84 % 1024,0 hPa 0,0 l/m 8,4 km/h (2 Bft) W-SW 250 2 min 0,000 mm 0,6 UV-I 374 W/m 0,8 C 1,4 C 12,9 km/h (3 Bft) 96,23 %
25.02.2017 09:22 3,2 C 84 % 1024,0 hPa 0,0 l/m 9,1 km/h (2 Bft) SW 233 2 min 0,000 mm 0,6 UV-I 380 W/m 0,8 C 0,8 C 14,5 km/h (3 Bft) 94,87 %
25.02.2017 09:24 3,3 C 84 % 1024,1 hPa 0,0 l/m 9,9 km/h (2 Bft) S-SW 209 2 min 0,000 mm 0,6 UV-I 369 W/m 0,9 C 0,3 C 14,5 km/h (3 Bft) 94,00 %
25.02.2017 09:26 3,3 C 84 % 1024,0 hPa 0,0 l/m 10,1 km/h (2 Bft) W-SW 248 2 min 0,000 mm 0,6 UV-I 330 W/m 0,9 C 0,1 C 16,1 km/h (3 Bft) 94,00 %
25.02.2017 09:28 3,3 C 83 % 1024,1 hPa 0,0 l/m 10,2 km/h (2 Bft) W-SW 237 2 min 0,000 mm 0,6 UV-I 296 W/m 0,7 C 0,0 C 14,5 km/h (3 Bft) 100,00 %
25.02.2017 09:30 3,3 C 84 % 1024,1 hPa 0,0 l/m 8,3 km/h (2 Bft) W-SW 238 2 min 0,000 mm 0,6 UV-I 324 W/m 0,9 C 1,6 C 14,5 km/h (3 Bft) 98,00 %
25.02.2017 09:32 3,3 C 83 % 1024,2 hPa 0,0 l/m 7,8 km/h (2 Bft) W-SW 254 2 min 0,000 mm 0,6 UV-I 262 W/m 0,7 C 2,0 C 14,5 km/h (3 Bft) 100,00 %
25.02.2017 09:34 3,2 C 83 % 1024,2 hPa 0,0 l/m 7,7 km/h (2 Bft) W 263 2 min 0,000 mm 0,7 UV-I 323 W/m 0,6 C 2,0 C 12,9 km/h (3 Bft) 97,56 %
25.02.2017 09:36 3,3 C 84 % 1024,2 hPa 0,0 l/m 6,8 km/h (2 Bft) W-NW 290 2 min 0,000 mm 0,7 UV-I 363 W/m 0,9 C 2,9 C 12,9 km/h (3 Bft) 96,00 %
25.02.2017 09:38 3,3 C 84 % 1024,2 hPa 0,0 l/m 6,4 km/h (2 Bft) W 267 2 min 0,000 mm 0,7 UV-I 377 W/m 0,9 C 3,3 C 12,9 km/h (3 Bft) 96,43 %
25.02.2017 09:40 3,3 C 83 % 1024,1 hPa 0,0 l/m 7,2 km/h (2 Bft) W-SW 242 2 min 0,000 mm 0,7 UV-I 418 W/m 0,7 C 2,5 C 12,9 km/h (3 Bft) 100,00 %
25.02.2017 09:42 3,3 C 83 % 1024,2 hPa 0,0 l/m 6,7 km/h (2 Bft) W 267 2 min 0,000 mm 0,7 UV-I 259 W/m 0,7 C 3,0 C 11,3 km/h (2 Bft) 97,87 %
25.02.2017 09:44 3,3 C 84 % 1024,2 hPa 0,0 l/m 4,9 km/h (1 Bft) W-SW 257 0 min 0,000 mm 0,6 UV-I 204 W/m 0,9 C 3,3 C 8,0 km/h (2 Bft) 93,62 %
25.02.2017 09:46 3,4 C 84 % 1024,2 hPa 0,0 l/m 6,9 km/h (2 Bft) SW 223 2 min 0,000 mm 0,8 UV-I 246 W/m 1,0 C 2,9 C 11,3 km/h (2 Bft) 94,34 %
25.02.2017 09:48 3,5 C 83 % 1024,3 hPa 0,0 l/m 6,8 km/h (2 Bft) S-SW 207 2 min 0,000 mm 0,8 UV-I 383 W/m 0,9 C 3,1 C 11,3 km/h (2 Bft) 90,24 %
25.02.2017 09:50 3,5 C 83 % 1024,3 hPa 0,0 l/m 6,0 km/h (2 Bft) W-SW 254 2 min 0,000 mm 0,8 UV-I 392 W/m 0,9 C 3,5 C 11,3 km/h (2 Bft) 96,00 %
25.02.2017 09:52 3,6 C 84 % 1024,3 hPa 0,0 l/m 5,7 km/h (1 Bft) SW 226 2 min 0,000 mm 0,8 UV-I 435 W/m 1,2 C 3,6 C 9,7 km/h (2 Bft) 95,45 %
25.02.2017 09:54 3,7 C 83 % 1024,4 hPa 0,0 l/m 5,0 km/h (1 Bft) SW 229 2 min 0,000 mm 0,8 UV-I 488 W/m 1,1 C 3,7 C 9,7 km/h (2 Bft) 94,00 %
25.02.2017 09:56 3,8 C 82 % 1024,3 hPa 0,0 l/m 5,0 km/h (1 Bft) W-SW 252 2 min 0,000 mm 0,9 UV-I 506 W/m 1,0 C 3,8 C 8,0 km/h (2 Bft) 97,87 %
25.02.2017 09:58 3,9 C 83 % 1024,3 hPa 0,0 l/m 7,1 km/h (2 Bft) W 277 2 min 0,000 mm 0,8 UV-I 468 W/m 1,3 C 3,3 C 12,9 km/h (3 Bft) 92,00 %
25.02.2017 10:00 3,8 C 82 % 1024,3 hPa 0,0 l/m 10,3 km/h (2 Bft) SW 215 0 min 0,127 mm 0,8 UV-I 233 W/m 1,0 C 0,5 C 16,1 km/h (3 Bft) 91,67 %
25.02.2017 10:02 3,7 C 82 % 1024,3 hPa 0,0 l/m 8,2 km/h (2 Bft) S-SW 210 2 min 0,000 mm 0,9 UV-I 340 W/m 0,9 C 2,1 C 11,3 km/h (2 Bft) 90,38 %
25.02.2017 10:04 3,8 C 83 % 1024,4 hPa 0,0 l/m 8,1 km/h (2 Bft) SW 218 2 min 0,000 mm 0,9 UV-I 503 W/m 1,2 C 2,3 C 12,9 km/h (3 Bft) 94,34 %
25.02.2017 10:06 3,8 C 82 % 1024,3 hPa 0,0 l/m 8,0 km/h (2 Bft) W-SW 243 2 min 0,000 mm 1,0 UV-I 475 W/m 1,0 C 2,3 C 12,9 km/h (3 Bft) 97,44 %
25.02.2017 10:09 4,1 C 82 % 1024,4 hPa 0,0 l/m 6,1 km/h (2 Bft) S-SW 205 3 min 0,000 mm 1,0 UV-I 472 W/m 1,3 C 4,1 C 11,3 km/h (2 Bft) 96,05 %
25.02.2017 10:10 4,2 C 82 % 1024,4 hPa 0,0 l/m 6,9 km/h (2 Bft) SW 232 1 min 0,000 mm 1,0 UV-I 459 W/m 1,4 C 3,8 C 8,0 km/h (2 Bft) 100,00 %
25.02.2017 10:12 4,3 C 81 % 1024,4 hPa 0,0 l/m 8,6 km/h (2 Bft) W 274 2 min 0,000 mm 1,0 UV-I 486 W/m 1,3 C 2,4 C 14,5 km/h (3 Bft) 100,00 %
25.02.2017 10:14 4,3 C 80 % 1024,3 hPa 0,0 l/m 9,4 km/h (2 Bft) W-NW 293 2 min 0,000 mm 1,0 UV-I 488 W/m 1,2 C 1,7 C 14,5 km/h (3 Bft) 100,00 %
25.02.2017 10:16 4,4 C 81 % 1024,4 hPa 0,0 l/m 8,4 km/h (2 Bft) W-SW 250 2 min 0,000 mm 1,0 UV-I 490 W/m 1,4 C 2,6 C 14,5 km/h (3 Bft) 96,23 %
25.02.2017 10:18 4,4 C 79 % 1024,4 hPa 0,0 l/m 8,1 km/h (2 Bft) W 265 2 min 0,000 mm 1,0 UV-I 486 W/m 1,1 C 2,9 C 12,9 km/h (3 Bft) 95,12 %
25.02.2017 10:20 4,4 C 79 % 1024,5 hPa 0,0 l/m 10,1 km/h (2 Bft) W-SW 244 2 min 0,000 mm 1,1 UV-I 378 W/m 1,1 C 1,3 C 14,5 km/h (3 Bft) 96,00 %
25.02.2017 10:22 4,3 C 79 % 1024,5 hPa 0,0 l/m 9,2 km/h (2 Bft) W-SW 240 2 min 0,000 mm 1,0 UV-I 286 W/m 1,0 C 1,9 C 16,1 km/h (3 Bft) 97,73 %
25.02.2017 10:24 4,3 C 79 % 1024,5 hPa 0,0 l/m 7,0 km/h (2 Bft) W-SW 254 0 min 0,000 mm 1,0 UV-I 255 W/m 1,0 C 3,8 C 14,5 km/h (3 Bft) 100,00 %
25.02.2017 10:26 4,3 C 80 % 1024,5 hPa 0,0 l/m 9,0 km/h (2 Bft) W 267 2 min 0,000 mm 1,1 UV-I 284 W/m 1,2 C 2,1 C 14,5 km/h (3 Bft) 93,62 %
25.02.2017 10:28 4,4 C 79 % 1024,5 hPa 0,0 l/m 8,0 km/h (2 Bft) W-NW 285 2 min 0,000 mm 1,1 UV-I 285 W/m 1,1 C 3,0 C 12,9 km/h (3 Bft) 97,87 %
25.02.2017 10:30 4,4 C 79 % 1024,5 hPa 0,0 l/m 8,3 km/h (2 Bft) W 265 2 min 0,000 mm 1,1 UV-I 479 W/m 1,1 C 2,7 C 16,1 km/h (3 Bft) 98,00 %
25.02.2017 10:32 4,4 C 78 % 1024,5 hPa 0,0 l/m 7,3 km/h (2 Bft) W-SW 247 2 min 0,000 mm 1,2 UV-I 529 W/m 0,9 C 3,6 C 11,3 km/h (2 Bft) 92,00 %
25.02.2017 10:34 4,4 C 78 % 1024,5 hPa 0,0 l/m 7,5 km/h (2 Bft) W 266 2 min 0,000 mm 1,2 UV-I 540 W/m 0,9 C 3,4 C 16,1 km/h (3 Bft) 97,37 %
25.02.2017 10:36 4,6 C 78 % 1024,6 hPa 0,0 l/m 6,8 km/h (2 Bft) W 275 2 min 0,000 mm 1,2 UV-I 554 W/m 1,1 C 4,3 C 14,5 km/h (3 Bft) 96,23 %
25.02.2017 10:38 4,6 C 77 % 1024,6 hPa 0,0 l/m 8,7 km/h (2 Bft) W-SW 253 2 min 0,000 mm 1,2 UV-I 515 W/m 0,9 C 2,6 C 14,5 km/h (3 Bft) 97,56 %
25.02.2017 10:40 4,7 C 77 % 1024,6 hPa 0,0 l/m 5,4 km/h (1 Bft) W-SW 254 2 min 0,000 mm 1,2 UV-I 527 W/m 1,0 C 4,7 C 6,4 km/h (2 Bft) 98,11 %
25.02.2017 10:42 4,8 C 76 % 1024,6 hPa 0,0 l/m 10,9 km/h (2 Bft) W-SW 250 2 min 0,000 mm 1,2 UV-I 531 W/m 0,9 C 1,2 C 16,1 km/h (3 Bft) 96,00 %
25.02.2017 10:44 4,7 C 74 % 1024,6 hPa 0,0 l/m 5,3 km/h (1 Bft) W 281 2 min 0,000 mm 1,2 UV-I 514 W/m 0,5 C 4,7 C 9,7 km/h (2 Bft) 100,00 %
25.02.2017 10:46 4,7 C 74 % 1024,6 hPa 0,0 l/m 8,0 km/h (2 Bft) W-SW 237 2 min 0,000 mm 1,3 UV-I 515 W/m 0,5 C 3,3 C 14,5 km/h (3 Bft) 100,00 %
25.02.2017 10:48 4,8 C 76 % 1024,6 hPa 0,0 l/m 7,3 km/h (2 Bft) W-NW 301 2 min 0,000 mm 1,3 UV-I 526 W/m 0,9 C 4,0 C 11,3 km/h (2 Bft) 95,74 %
25.02.2017 10:50 5,1 C 77 % 1024,6 hPa 0,0 l/m 7,7 km/h (2 Bft) W 273 2 min 0,000 mm 1,3 UV-I 516 W/m 1,4 C 4,0 C 12,9 km/h (3 Bft) 98,21 %
25.02.2017 10:52 5,1 C 74 % 1024,6 hPa 0,0 l/m 3,1 km/h (1 Bft) W-SW 244 2 min 0,000 mm 1,3 UV-I 517 W/m 0,9 C 5,1 C 8,0 km/h (2 Bft) 94,00 %
25.02.2017 10:54 5,1 C 76 % 1024,7 hPa 0,0 l/m 4,0 km/h (1 Bft) W-SW 256 2 min 0,000 mm 1,3 UV-I 510 W/m 1,2 C 5,1 C 6,4 km/h (2 Bft) 100,00 %
25.02.2017 10:56 5,3 C 76 % 1024,6 hPa 0,0 l/m 3,4 km/h (1 Bft) W-NW 298 2 min 0,000 mm 1,3 UV-I 478 W/m 1,4 C 5,3 C 6,4 km/h (2 Bft) 92,00 %
25.02.2017 10:58 5,3 C 73 % 1024,7 hPa 0,0 l/m 5,3 km/h (1 Bft) W-SW 252 2 min 0,000 mm 1,3 UV-I 512 W/m 0,9 C 5,3 C 9,7 km/h (2 Bft) 92,00 %
25.02.2017 11:00 5,2 C 74 % 1024,7 hPa 0,0 l/m 5,9 km/h (2 Bft) W-SW 239 2 min 0,000 mm 1,3 UV-I 497 W/m 1,0 C 5,2 C 9,7 km/h (2 Bft) 100,00 %
25.02.2017 11:02 5,3 C 74 % 1024,7 hPa 0,0 l/m 7,0 km/h (2 Bft) NW 304 2 min 0,203 mm 1,3 UV-I 494 W/m 1,0 C 4,8 C 11,3 km/h (2 Bft) 98,00 %
25.02.2017 11:04 5,5 C 74 % 1024,7 hPa 0,0 l/m 3,8 km/h (1 Bft) SW 231 2 min 0,000 mm 1,3 UV-I 538 W/m 1,2 C 5,5 C 8,0 km/h (2 Bft) 88,68 %
25.02.2017 11:06 5,6 C 72 % 1024,6 hPa 0,0 l/m 8,7 km/h (2 Bft) W-SW 245 2 min 0,000 mm 1,4 UV-I 573 W/m 1,0 C 3,7 C 14,5 km/h (3 Bft) 97,37 %
25.02.2017 11:08 5,4 C 72 % 1024,7 hPa 0,0 l/m 5,0 km/h (1 Bft) W-SW 240 2 min 0,000 mm 1,4 UV-I 559 W/m 0,8 C 5,4 C 12,9 km/h (3 Bft) 98,21 %
25.02.2017 11:10 5,4 C 72 % 1024,7 hPa 0,0 l/m 11,0 km/h (2 Bft) SW 229 2 min 0,000 mm 1,4 UV-I 544 W/m 0,8 C 1,8 C 16,1 km/h (3 Bft) 92,11 %
25.02.2017 11:12 5,5 C 71 % 1024,7 hPa 0,0 l/m 8,3 km/h (2 Bft) S-SW 210 2 min 0,000 mm 1,4 UV-I 548 W/m 0,7 C 3,9 C 16,1 km/h (3 Bft) 93,18 %
25.02.2017 11:14 5,6 C 70 % 1024,7 hPa 0,0 l/m 8,6 km/h (2 Bft) W 277 2 min 0,000 mm 1,4 UV-I 531 W/m 0,6 C 3,8 C 14,5 km/h (3 Bft) 96,43 %
25.02.2017 11:16 5,6 C 68 % 1024,7 hPa 0,0 l/m 5,1 km/h (1 Bft) W 259 2 min 0,000 mm 1,4 UV-I 507 W/m 0,2 C 5,6 C 11,3 km/h (2 Bft) 94,74 %
25.02.2017 11:18 5,6 C 71 % 1024,6 hPa 0,0 l/m 1,2 km/h (1 Bft) W 279 2 min 0,000 mm 1,4 UV-I 509 W/m 0,8 C 5,6 C 3,2 km/h (1 Bft) 94,29 %
25.02.2017 11:20 5,8 C 73 % 1024,7 hPa 0,0 l/m 1,9 km/h (1 Bft) W 269 2 min 0,000 mm 1,4 UV-I 522 W/m 1,3 C 5,8 C 4,8 km/h (1 Bft) 92,54 %
25.02.2017 11:22 6,1 C 71 % 1024,7 hPa 0,0 l/m 5,8 km/h (2 Bft) W-SW 248 2 min 0,000 mm 1,4 UV-I 512 W/m 1,2 C 6,1 C 11,3 km/h (2 Bft) 97,62 %
25.02.2017 11:24 6,0 C 69 % 1024,7 hPa 0,0 l/m 6,2 km/h (2 Bft) W-NW 284 2 min 0,000 mm 1,4 UV-I 522 W/m 0,8 C 6,0 C 11,3 km/h (2 Bft) 95,45 %
25.02.2017 11:26 5,9 C 67 % 1024,7 hPa 0,0 l/m 8,1 km/h (2 Bft) W 261 2 min 0,000 mm 1,4 UV-I 506 W/m 0,3 C 4,5 C 14,5 km/h (3 Bft) 91,49 %
25.02.2017 11:28 5,9 C 68 % 1024,7 hPa 0,0 l/m 10,1 km/h (2 Bft) W-SW 246 2 min 0,000 mm 1,4 UV-I 497 W/m 0,5 C 3,0 C 16,1 km/h (3 Bft) 96,23 %
25.02.2017 11:30 5,9 C 68 % 1024,7 hPa 0,0 l/m 8,9 km/h (2 Bft) W-SW 252 2 min 0,000 mm 1,4 UV-I 473 W/m 0,5 C 3,9 C 12,9 km/h (3 Bft) 100,00 %
25.02.2017 11:32 5,7 C 67 % 1024,7 hPa 0,0 l/m 5,3 km/h (1 Bft) NW 316 2 min 0,000 mm 1,4 UV-I 518 W/m 0,1 C 5,7 C 12,9 km/h (3 Bft) 95,74 %
25.02.2017 11:34 5,7 C 69 % 1024,6 hPa 0,0 l/m 4,7 km/h (1 Bft) SW 236 2 min 0,000 mm 1,4 UV-I 493 W/m 0,5 C 5,7 C 11,3 km/h (2 Bft) 94,34 %
25.02.2017 11:36 5,7 C 69 % 1024,6 hPa 0,0 l/m 8,7 km/h (2 Bft) W-SW 254 2 min 0,000 mm 1,5 UV-I 321 W/m 0,5 C 3,8 C 12,9 km/h (3 Bft) 100,00 %
25.02.2017 11:38 5,8 C 69 % 1024,5 hPa 0,0 l/m 7,3 km/h (2 Bft) W-SW 243 2 min 0,000 mm 1,5 UV-I 525 W/m 0,6 C 5,0 C 9,7 km/h (2 Bft) 100,00 %
25.02.2017 11:40 5,7 C 69 % 1024,5 hPa 0,0 l/m 9,5 km/h (2 Bft) W 265 2 min 0,000 mm 1,5 UV-I 523 W/m 0,5 C 3,2 C 14,5 km/h (3 Bft) 93,62 %
25.02.2017 11:42 5,7 C 70 % 1024,4 hPa 0,0 l/m 4,7 km/h (1 Bft) W-SW 247 2 min 0,000 mm 1,4 UV-I 517 W/m 0,7 C 5,7 C 11,3 km/h (2 Bft) 95,74 %
25.02.2017 11:44 5,8 C 70 % 1024,4 hPa 0,0 l/m 7,6 km/h (2 Bft) SW 223 2 min 0,000 mm 1,4 UV-I 515 W/m 0,8 C 4,8 C 11,3 km/h (2 Bft) 100,00 %
25.02.2017 11:46 6,0 C 70 % 1024,5 hPa 0,0 l/m 5,5 km/h (1 Bft) S-SW 207 2 min 0,000 mm 1,5 UV-I 521 W/m 1,0 C 6,0 C 9,7 km/h (2 Bft) 96,43 %
25.02.2017 11:48 6,1 C 69 % 1024,4 hPa 0,0 l/m 6,3 km/h (2 Bft) W 267 2 min 0,000 mm 1,4 UV-I 516 W/m 0,8 C 6,1 C 14,5 km/h (3 Bft) 92,11 %
25.02.2017 11:50 6,1 C 67 % 1024,4 hPa 0,0 l/m 6,0 km/h (2 Bft) W-NW 286 2 min 0,000 mm 1,4 UV-I 484 W/m 0,4 C 6,1 C 12,9 km/h (3 Bft) 98,21 %
25.02.2017 11:52 6,0 C 67 % 1024,4 hPa 0,0 l/m 3,0 km/h (1 Bft) W 269 2 min 0,000 mm 1,3 UV-I 458 W/m 0,3 C 6,0 C 9,7 km/h (2 Bft) 100,00 %
25.02.2017 11:54 5,9 C 68 % 1024,3 hPa 0,0 l/m 7,4 km/h (2 Bft) W 273 2 min 0,000 mm 1,3 UV-I 414 W/m 0,5 C 5,0 C 11,3 km/h (2 Bft) 100,00 %
25.02.2017 11:56 5,9 C 67 % 1024,4 hPa 0,0 l/m 6,5 km/h (2 Bft) W-SW 248 2 min 0,000 mm 1,3 UV-I 363 W/m 0,3 C 5,8 C 11,3 km/h (2 Bft) 93,62 %
25.02.2017 11:58 5,8 C 66 % 1024,3 hPa 0,0 l/m 11,6 km/h (2 Bft) W 261 0 min 0,000 mm 1,1 UV-I 174 W/m -0,0 C 1,9 C 14,5 km/h (3 Bft) 98,00 %
25.02.2017 12:00 5,7 C 66 % 1024,3 hPa 0,0 l/m 11,0 km/h (2 Bft) W-SW 242 0 min 0,203 mm 1,2 UV-I 205 W/m -0,1 C 2,2 C 14,5 km/h (3 Bft) 92,68 %
25.02.2017 12:02 5,8 C 68 % 1024,3 hPa 0,0 l/m 8,1 km/h (2 Bft) W-SW 241 2 min 0,000 mm 1,4 UV-I 406 W/m 0,4 C 4,4 C 12,9 km/h (3 Bft) 95,24 %
25.02.2017 12:04 5,9 C 66 % 1024,3 hPa 0,0 l/m 8,3 km/h (2 Bft) SW 226 2 min 0,000 mm 1,5 UV-I 499 W/m 0,0 C 4,3 C 14,5 km/h (3 Bft) 96,23 %
25.02.2017 12:06 6,1 C 66 % 1024,3 hPa 0,0 l/m 7,6 km/h (2 Bft) W-SW 242 2 min 0,000 mm 1,5 UV-I 525 W/m 0,2 C 5,1 C 14,5 km/h (3 Bft) 98,00 %
25.02.2017 12:08 6,2 C 65 % 1024,2 hPa 0,0 l/m 11,4 km/h (2 Bft) SW 236 2 min 0,000 mm 1,5 UV-I 528 W/m 0,1 C 2,5 C 17,7 km/h (3 Bft) 97,37 %
25.02.2017 12:10 6,2 C 64 % 1024,3 hPa 0,0 l/m 10,7 km/h (2 Bft) W-SW 255 2 min 0,000 mm 1,4 UV-I 515 W/m -0,1 C 2,9 C 17,7 km/h (3 Bft) 96,00 %
25.02.2017 12:12 6,2 C 65 % 1024,3 hPa 0,0 l/m 5,3 km/h (1 Bft) W-SW 245 2 min 0,000 mm 1,4 UV-I 378 W/m 0,1 C 6,2 C 9,7 km/h (2 Bft) 92,68 %
25.02.2017 12:14 6,4 C 65 % 1024,3 hPa 0,0 l/m 6,5 km/h (2 Bft) SW 216 2 min 0,000 mm 1,3 UV-I 378 W/m 0,3 C 6,3 C 11,3 km/h (2 Bft) 94,92 %
25.02.2017 12:16 6,6 C 65 % 1024,4 hPa 0,0 l/m 7,8 km/h (2 Bft) SW 233 2 min 0,000 mm 1,4 UV-I 545 W/m 0,5 C 5,4 C 14,5 km/h (3 Bft) 100,00 %
25.02.2017 12:18 6,7 C 64 % 1024,4 hPa 0,0 l/m 3,3 km/h (1 Bft) NW 312 2 min 0,000 mm 1,4 UV-I 637 W/m 0,4 C 6,7 C 11,3 km/h (2 Bft) 91,53 %
25.02.2017 12:20 6,9 C 66 % 1024,3 hPa 0,0 l/m 5,2 km/h (1 Bft) W-SW 238 2 min 0,000 mm 1,4 UV-I 587 W/m 1,0 C 6,9 C 14,5 km/h (3 Bft) 94,74 %
25.02.2017 12:23 6,7 C 64 % 1024,3 hPa 0,0 l/m 6,0 km/h (2 Bft) W 260 3 min 0,000 mm 1,4 UV-I 608 W/m 0,4 C 6,7 C 9,7 km/h (2 Bft) 98,73 %
25.02.2017 12:24 6,8 C 66 % 1024,3 hPa 0,0 l/m 8,7 km/h (2 Bft) SW 231 1 min 0,000 mm 1,3 UV-I 476 W/m 0,9 C 5,0 C 11,3 km/h (2 Bft) 91,67 %
25.02.2017 12:26 6,7 C 63 % 1024,3 hPa 0,0 l/m 6,8 km/h (2 Bft) W-SW 240 0 min 0,000 mm 1,2 UV-I 274 W/m 0,2 C 6,4 C 9,7 km/h (2 Bft) 92,68 %
25.02.2017 12:28 6,6 C 63 % 1024,3 hPa 0,0 l/m 2,1 km/h (1 Bft) W-NW 301 0 min 0,000 mm 1,2 UV-I 242 W/m 0,1 C 6,6 C 4,8 km/h (1 Bft) 94,74 %
25.02.2017 12:30 6,5 C 64 % 1024,3 hPa 0,0 l/m 5,0 km/h (1 Bft) W 275 2 min 0,000 mm 1,5 UV-I 455 W/m 0,2 C 6,5 C 8,0 km/h (2 Bft) 93,22 %
25.02.2017 12:32 6,6 C 64 % 1024,2 hPa 0,0 l/m 4,8 km/h (1 Bft) W 265 2 min 0,000 mm 1,6 UV-I 644 W/m 0,3 C 6,6 C 9,7 km/h (2 Bft) 92,68 %
25.02.2017 12:34 6,6 C 62 % 1024,2 hPa 0,0 l/m 7,3 km/h (2 Bft) W 275 2 min 0,000 mm 1,6 UV-I 631 W/m -0,1 C 5,8 C 11,3 km/h (2 Bft) 95,45 %
25.02.2017 12:36 6,6 C 63 % 1024,1 hPa 0,0 l/m 4,2 km/h (1 Bft) W 269 2 min 0,000 mm 1,6 UV-I 633 W/m 0,1 C 6,6 C 9,7 km/h (2 Bft) 96,23 %
25.02.2017 12:38 6,9 C 64 % 1024,1 hPa 0,0 l/m 12,4 km/h (3 Bft) W 270 2 min 0,000 mm 1,6 UV-I 617 W/m 0,6 C 2,7 C 16,1 km/h (3 Bft) 94,00 %
25.02.2017 12:40 6,9 C 62 % 1024,1 hPa 0,0 l/m 12,6 km/h (3 Bft) W-SW 247 2 min 0,000 mm 1,6 UV-I 592 W/m 0,1 C 2,6 C 17,7 km/h (3 Bft) 92,31 %
25.02.2017 12:42 6,9 C 61 % 1024,1 hPa 0,0 l/m 8,3 km/h (2 Bft) W 281 2 min 0,000 mm 1,6 UV-I 584 W/m -0,1 C 5,4 C 12,9 km/h (3 Bft) 96,00 %
25.02.2017 12:44 6,8 C 61 % 1024,0 hPa 0,0 l/m 6,8 km/h (2 Bft) SW 231 2 min 0,000 mm 1,6 UV-I 584 W/m -0,2 C 6,5 C 11,3 km/h (2 Bft) 94,34 %
25.02.2017 12:46 7,0 C 63 % 1024,0 hPa 0,0 l/m 5,9 km/h (2 Bft) NW 306 2 min 0,000 mm 1,6 UV-I 584 W/m 0,4 C 7,0 C 11,3 km/h (2 Bft) 94,74 %
25.02.2017 12:48 7,0 C 60 % 1024,0 hPa 0,0 l/m 6,9 km/h (2 Bft) NW 304 2 min 0,000 mm 1,6 UV-I 589 W/m -0,2 C 6,6 C 12,9 km/h (3 Bft) 94,64 %
25.02.2017 12:50 6,9 C 59 % 1024,0 hPa 0,0 l/m 6,6 km/h (2 Bft) SW 219 2 min 0,000 mm 1,6 UV-I 593 W/m -0,5 C 6,8 C 11,3 km/h (2 Bft) 89,47 %
25.02.2017 12:52 6,9 C 59 % 1023,9 hPa 0,0 l/m 5,1 km/h (1 Bft) W 271 2 min 0,000 mm 1,6 UV-I 590 W/m -0,5 C 6,9 C 9,7 km/h (2 Bft) 97,87 %
25.02.2017 12:54 7,1 C 60 % 1023,9 hPa 0,0 l/m 6,5 km/h (2 Bft) W-NW 286 2 min 0,000 mm 1,6 UV-I 571 W/m -0,1 C 7,0 C 14,5 km/h (3 Bft) 94,00 %
25.02.2017 12:56 7,1 C 60 % 1023,9 hPa 0,0 l/m 6,8 km/h (2 Bft) W 271 2 min 0,000 mm 1,6 UV-I 569 W/m -0,1 C 6,8 C 14,5 km/h (3 Bft) 98,00 %
25.02.2017 12:58 7,0 C 59 % 1023,9 hPa 0,0 l/m 7,7 km/h (2 Bft) S 181 2 min 0,000 mm 1,5 UV-I 565 W/m -0,5 C 5,9 C 16,1 km/h (3 Bft) 97,56 %
25.02.2017 13:00 6,9 C 59 % 1023,8 hPa 0,0 l/m 2,8 km/h (1 Bft) N-NW 343 2 min 0,254 mm 1,6 UV-I 602 W/m -0,5 C 6,9 C 8,0 km/h (2 Bft) 96,55 %
25.02.2017 13:02 6,9 C 62 % 1023,9 hPa 0,0 l/m 2,0 km/h (1 Bft) S-SW 195 2 min 0,000 mm 1,6 UV-I 596 W/m 0,1 C 6,9 C 8,0 km/h (2 Bft) 95,16 %
25.02.2017 13:04 7,2 C 61 % 1023,9 hPa 0,0 l/m 7,5 km/h (2 Bft) W 259 2 min 0,000 mm 1,6 UV-I 615 W/m 0,2 C 6,3 C 11,3 km/h (2 Bft) 95,45 %
25.02.2017 13:06 7,3 C 60 % 1023,9 hPa 0,0 l/m 7,0 km/h (2 Bft) NW 306 2 min 0,000 mm 1,5 UV-I 634 W/m 0,1 C 6,8 C 14,5 km/h (3 Bft) 96,43 %
25.02.2017 13:08 7,4 C 57 % 1023,9 hPa 0,0 l/m 7,3 km/h (2 Bft) SW 222 2 min 0,000 mm 1,5 UV-I 639 W/m -0,5 C 6,7 C 12,9 km/h (3 Bft) 95,74 %
25.02.2017 13:10 7,4 C 58 % 1023,8 hPa 0,0 l/m 10,5 km/h (2 Bft) N-NW 333 2 min 0,000 mm 1,5 UV-I 647 W/m -0,3 C 4,4 C 17,7 km/h (3 Bft) 100,00 %
25.02.2017 13:12 7,3 C 57 % 1023,8 hPa 0,0 l/m 3,9 km/h (1 Bft) W-NW 286 2 min 0,000 mm 1,5 UV-I 637 W/m -0,6 C 7,3 C 9,7 km/h (2 Bft) 100,00 %
25.02.2017 13:14 7,4 C 58 % 1023,8 hPa 0,0 l/m 4,1 km/h (1 Bft) W 263 2 min 0,000 mm 1,5 UV-I 629 W/m -0,3 C 7,4 C 12,9 km/h (3 Bft) 98,11 %
25.02.2017 13:16 7,4 C 57 % 1023,8 hPa 0,0 l/m 9,9 km/h (2 Bft) W 267 2 min 0,000 mm 1,5 UV-I 588 W/m -0,5 C 4,8 C 17,7 km/h (3 Bft) 97,44 %
25.02.2017 13:18 7,3 C 54 % 1023,7 hPa 0,0 l/m 7,9 km/h (2 Bft) W 264 2 min 0,000 mm 1,5 UV-I 582 W/m -1,4 C 6,1 C 14,5 km/h (3 Bft) 96,00 %
25.02.2017 13:20 7,3 C 56 % 1023,7 hPa 0,0 l/m 10,7 km/h (2 Bft) W-SW 252 2 min 0,000 mm 1,5 UV-I 568 W/m -0,9 C 4,2 C 17,7 km/h (3 Bft) 100,00 %
25.02.2017 13:22 7,3 C 54 % 1023,7 hPa 0,0 l/m 6,8 km/h (2 Bft) W-SW 257 2 min 0,000 mm 1,5 UV-I 565 W/m -1,4 C 7,0 C 11,3 km/h (2 Bft) 100,00 %
25.02.2017 13:24 7,4 C 55 % 1023,7 hPa 0,0 l/m 7,1 km/h (2 Bft) W 269 2 min 0,000 mm 1,5 UV-I 561 W/m -1,0 C 6,8 C 12,9 km/h (3 Bft) 95,74 %
25.02.2017 13:26 7,7 C 59 % 1023,6 hPa 0,0 l/m 3,2 km/h (1 Bft) W-NW 293 2 min 0,000 mm 1,5 UV-I 552 W/m 0,2 C 7,7 C 12,9 km/h (3 Bft) 94,34 %
25.02.2017 13:28 7,7 C 56 % 1023,6 hPa 0,0 l/m 6,6 km/h (2 Bft) W 265 2 min 0,000 mm 1,4 UV-I 543 W/m -0,5 C 7,6 C 12,9 km/h (3 Bft) 100,00 %
25.02.2017 13:30 7,6 C 60 % 1023,6 hPa 0,0 l/m 4,5 km/h (1 Bft) W-NW 300 2 min 0,000 mm 1,4 UV-I 532 W/m 0,3 C 7,6 C 8,0 km/h (2 Bft) 100,00 %
25.02.2017 13:32 7,7 C 60 % 1023,5 hPa 0,0 l/m 6,0 km/h (2 Bft) W-SW 248 2 min 0,000 mm 1,4 UV-I 513 W/m 0,4 C 7,7 C 12,9 km/h (3 Bft) 96,00 %
25.02.2017 13:34 7,6 C 57 % 1023,5 hPa 0,0 l/m 5,3 km/h (1 Bft) NW 308 2 min 0,000 mm 1,4 UV-I 521 W/m -0,4 C 7,6 C 11,3 km/h (2 Bft) 92,11 %
25.02.2017 13:36 7,5 C 58 % 1023,5 hPa 0,0 l/m 0,9 km/h (0 Bft) W-NW 299 2 min 0,000 mm 1,4 UV-I 529 W/m -0,2 C 7,5 C 3,2 km/h (1 Bft) 98,00 %
25.02.2017 13:38 7,7 C 58 % 1023,5 hPa 0,0 l/m 8,2 km/h (2 Bft) W 271 2 min 0,000 mm 1,4 UV-I 532 W/m -0,0 C 6,3 C 16,1 km/h (3 Bft) 100,00 %
25.02.2017 13:40 7,7 C 54 % 1023,6 hPa 0,0 l/m 8,3 km/h (2 Bft) S-SW 205 2 min 0,000 mm 1,4 UV-I 538 W/m -1,0 C 6,2 C 14,5 km/h (3 Bft) 92,00 %
25.02.2017 13:42 7,7 C 54 % 1023,5 hPa 0,0 l/m 1,4 km/h (1 Bft) W-SW 242 2 min 0,000 mm 1,4 UV-I 550 W/m -1,0 C 7,7 C 4,8 km/h (1 Bft) 94,29 %
25.02.2017 13:44 7,6 C 57 % 1023,5 hPa 0,0 l/m 4,5 km/h (1 Bft) N-NW 329 2 min 0,000 mm 1,4 UV-I 544 W/m -0,4 C 7,6 C 9,7 km/h (2 Bft) 100,00 %
25.02.2017 13:46 7,4 C 57 % 1023,4 hPa 0,0 l/m 4,6 km/h (1 Bft) NW 311 2 min 0,000 mm 1,4 UV-I 531 W/m -0,5 C 7,4 C 14,5 km/h (3 Bft) 100,00 %
25.02.2017 13:48 7,7 C 58 % 1023,4 hPa 0,0 l/m 5,9 km/h (2 Bft) W 279 2 min 0,000 mm 1,3 UV-I 525 W/m -0,0 C 7,7 C 14,5 km/h (3 Bft) 90,00 %
25.02.2017 13:50 7,9 C 54 % 1023,4 hPa 0,0 l/m 13,3 km/h (3 Bft) W-SW 243 2 min 0,000 mm 1,3 UV-I 546 W/m -0,8 C 3,4 C 19,3 km/h (3 Bft) 98,00 %
25.02.2017 13:52 7,9 C 55 % 1023,4 hPa 0,0 l/m 8,7 km/h (2 Bft) SW 236 2 min 0,000 mm 1,3 UV-I 541 W/m -0,6 C 6,1 C 14,5 km/h (3 Bft) 100,00 %
25.02.2017 13:54 7,8 C 56 % 1023,4 hPa 0,0 l/m 5,6 km/h (1 Bft) SW 224 2 min 0,000 mm 1,2 UV-I 523 W/m -0,4 C 7,8 C 9,7 km/h (2 Bft) 94,34 %
25.02.2017 13:56 7,9 C 53 % 1023,4 hPa 0,0 l/m 7,3 km/h (2 Bft) W 267 2 min 0,000 mm 1,3 UV-I 528 W/m -1,1 C 7,2 C 12,9 km/h (3 Bft) 87,18 %
25.02.2017 13:58 7,9 C 56 % 1023,4 hPa 0,0 l/m 6,1 km/h (2 Bft) SW 236 2 min 0,000 mm 1,3 UV-I 546 W/m -0,3 C 7,9 C 8,0 km/h (2 Bft) 96,23 %
25.02.2017 14:00 7,9 C 55 % 1023,4 hPa 0,0 l/m 10,5 km/h (2 Bft) W 275 2 min 0,254 mm 1,3 UV-I 531 W/m -0,6 C 5,0 C 17,7 km/h (3 Bft) 98,08 %
25.02.2017 14:02 8,0 C 54 % 1023,4 hPa 0,0 l/m 11,4 km/h (2 Bft) SW 227 2 min 0,000 mm 1,2 UV-I 502 W/m -0,7 C 4,5 C 17,7 km/h (3 Bft) 95,24 %
25.02.2017 14:05 7,9 C 54 % 1023,4 hPa 0,0 l/m 8,0 km/h (2 Bft) W 261 3 min 0,000 mm 1,2 UV-I 509 W/m -0,8 C 6,6 C 12,9 km/h (3 Bft) 92,54 %
25.02.2017 14:06 7,9 C 54 % 1023,4 hPa 0,0 l/m 4,2 km/h (1 Bft) W 276 1 min 0,000 mm 1,2 UV-I 510 W/m -0,8 C 7,9 C 6,4 km/h (2 Bft) 96,67 %
25.02.2017 14:08 7,9 C 54 % 1023,4 hPa 0,0 l/m 6,2 km/h (2 Bft) S-SW 211 2 min 0,000 mm 1,2 UV-I 507 W/m -0,8 C 7,9 C 12,9 km/h (3 Bft) 97,87 %
25.02.2017 14:10 8,0 C 55 % 1023,3 hPa 0,0 l/m 2,7 km/h (1 Bft) S-SW 209 2 min 0,000 mm 1,2 UV-I 488 W/m -0,5 C 8,0 C 6,4 km/h (2 Bft) 91,84 %
25.02.2017 14:12 8,0 C 55 % 1023,3 hPa 0,0 l/m 7,1 km/h (2 Bft) W-SW 250 2 min 0,000 mm 1,2 UV-I 487 W/m -0,5 C 7,4 C 12,9 km/h (3 Bft) 97,37 %
25.02.2017 14:14 8,0 C 57 % 1023,3 hPa 0,0 l/m 4,3 km/h (1 Bft) W-NW 286 2 min 0,000 mm 1,2 UV-I 492 W/m 0,0 C 8,0 C 12,9 km/h (3 Bft) 96,23 %
25.02.2017 14:16 7,9 C 54 % 1023,2 hPa 0,0 l/m 7,2 km/h (2 Bft) W 266 2 min 0,000 mm 1,2 UV-I 483 W/m -0,8 C 7,3 C 14,5 km/h (3 Bft) 97,56 %
25.02.2017 14:18 7,7 C 53 % 1023,2 hPa 0,0 l/m 6,1 km/h (2 Bft) W-SW 251 2 min 0,000 mm 1,1 UV-I 462 W/m -1,3 C 7,7 C 11,3 km/h (2 Bft) 100,00 %
25.02.2017 14:20 7,6 C 55 % 1023,2 hPa 0,0 l/m 0,7 km/h (0 Bft) W-SW 251 2 min 0,000 mm 0,9 UV-I 334 W/m -0,9 C 7,6 C 1,6 km/h (1 Bft) 97,87 %
25.02.2017 14:22 7,6 C 56 % 1023,2 hPa 0,0 l/m 7,2 km/h (2 Bft) W-SW 244 0 min 0,000 mm 1,0 UV-I 163 W/m -0,6 C 7,0 C 12,9 km/h (3 Bft) 100,00 %
25.02.2017 14:24 7,6 C 54 % 1023,2 hPa 0,0 l/m 4,4 km/h (1 Bft) SW 219 0 min 0,000 mm 1,0 UV-I 240 W/m -1,1 C 7,6 C 9,7 km/h (2 Bft) 98,21 %
25.02.2017 14:26 7,6 C 55 % 1023,1 hPa 0,0 l/m 5,4 km/h (1 Bft) SW 222 2 min 0,000 mm 1,1 UV-I 422 W/m -0,9 C 7,6 C 11,3 km/h (2 Bft) 96,23 %
25.02.2017 14:28 7,7 C 56 % 1023,0 hPa 0,0 l/m 7,5 km/h (2 Bft) W-SW 250 2 min 0,000 mm 1,1 UV-I 479 W/m -0,5 C 6,8 C 12,9 km/h (3 Bft) 97,73 %
25.02.2017 14:30 7,8 C 54 % 1023,0 hPa 0,0 l/m 7,4 km/h (2 Bft) W-SW 255 2 min 0,000 mm 1,1 UV-I 477 W/m -0,9 C 7,0 C 11,3 km/h (2 Bft) 98,11 %
25.02.2017 14:32 7,8 C 55 % 1023,0 hPa 0,0 l/m 5,7 km/h (1 Bft) W-SW 243 2 min 0,000 mm 1,0 UV-I 454 W/m -0,7 C 7,8 C 11,3 km/h (2 Bft) 100,00 %
25.02.2017 14:34 7,8 C 54 % 1022,9 hPa 0,0 l/m 2,8 km/h (1 Bft) SW 234 2 min 0,000 mm 1,0 UV-I 465 W/m -0,9 C 7,8 C 4,8 km/h (1 Bft) 100,00 %
25.02.2017 14:36 7,7 C 54 % 1022,9 hPa 0,0 l/m 1,4 km/h (1 Bft) W 281 2 min 0,000 mm 1,0 UV-I 452 W/m -1,0 C 7,7 C 6,4 km/h (2 Bft) 100,00 %
25.02.2017 14:38 7,7 C 54 % 1022,8 hPa 0,0 l/m 1,7 km/h (1 Bft) NW 310 2 min 0,000 mm 0,9 UV-I 382 W/m -1,0 C 7,7 C 6,4 km/h (2 Bft) 100,00 %
25.02.2017 14:40 7,6 C 55 % 1022,8 hPa 0,0 l/m 1,7 km/h (1 Bft) SW 215 2 min 0,000 mm 0,9 UV-I 427 W/m -0,9 C 7,6 C 8,0 km/h (2 Bft) 98,00 %
25.02.2017 14:43 7,8 C 55 % 1022,8 hPa 0,0 l/m 4,1 km/h (1 Bft) W-SW 258 3 min 0,000 mm 0,9 UV-I 425 W/m -0,7 C 7,8 C 11,3 km/h (2 Bft) 100,00 %
25.02.2017 14:44 7,8 C 55 % 1022,8 hPa 0,0 l/m 9,6 km/h (2 Bft) W 281 1 min 0,000 mm 0,9 UV-I 417 W/m -0,7 C 5,4 C 12,9 km/h (3 Bft) 100,00 %
25.02.2017 14:46 7,7 C 54 % 1022,8 hPa 0,0 l/m 7,8 km/h (2 Bft) W-SW 254 2 min 0,000 mm 0,9 UV-I 413 W/m -1,0 C 6,6 C 11,3 km/h (2 Bft) 97,50 %
25.02.2017 14:48 7,6 C 53 % 1022,8 hPa 0,0 l/m 7,8 km/h (2 Bft) W-SW 257 2 min 0,000 mm 0,9 UV-I 405 W/m -1,4 C 6,5 C 14,5 km/h (3 Bft) 98,00 %
25.02.2017 14:50 7,6 C 54 % 1022,8 hPa 0,0 l/m 2,3 km/h (1 Bft) W 277 2 min 0,000 mm 0,9 UV-I 405 W/m -1,1 C 7,6 C 9,7 km/h (2 Bft) 98,00 %
25.02.2017 14:52 7,6 C 53 % 1022,8 hPa 0,0 l/m 2,6 km/h (1 Bft) W 277 2 min 0,000 mm 0,8 UV-I 402 W/m -1,4 C 7,6 C 6,4 km/h (2 Bft) 97,87 %
25.02.2017 14:54 7,6 C 55 % 1022,8 hPa 0,0 l/m 4,0 km/h (1 Bft) NW 306 2 min 0,000 mm 0,8 UV-I 403 W/m -0,9 C 7,6 C 12,9 km/h (3 Bft) 98,00 %
25.02.2017 14:56 7,6 C 54 % 1022,7 hPa 0,0 l/m 3,0 km/h (1 Bft) NW 323 2 min 0,000 mm 0,8 UV-I 384 W/m -1,1 C 7,6 C 8,0 km/h (2 Bft) 97,50 %
25.02.2017 14:58 7,6 C 55 % 1022,7 hPa 0,0 l/m 4,1 km/h (1 Bft) W-NW 302 2 min 0,000 mm 0,8 UV-I 388 W/m -0,9 C 7,6 C 8,0 km/h (2 Bft) 100,00 %
25.02.2017 15:00 7,7 C 56 % 1022,6 hPa 0,0 l/m 2,2 km/h (1 Bft) NW 319 2 min 0,203 mm 0,8 UV-I 382 W/m -0,5 C 7,7 C 3,2 km/h (1 Bft) 100,00 %
25.02.2017 15:03 7,7 C 55 % 1022,5 hPa 0,0 l/m 1,9 km/h (1 Bft) NW 323 3 min 0,000 mm 0,7 UV-I 364 W/m -0,8 C 7,7 C 4,8 km/h (1 Bft) 100,00 %
25.02.2017 15:04 7,7 C 55 % 1022,5 hPa 0,0 l/m 0,2 km/h (0 Bft) NW 323 1 min 0,000 mm 0,7 UV-I 358 W/m -0,8 C 7,7 C 1,6 km/h (1 Bft) 100,00 %
25.02.2017 15:06 7,6 C 54 % 1022,5 hPa 0,0 l/m 5,8 km/h (2 Bft) W-NW 290 2 min 0,000 mm 0,7 UV-I 345 W/m -1,1 C 7,6 C 12,9 km/h (3 Bft) 97,87 %
25.02.2017 15:08 7,6 C 53 % 1022,5 hPa 0,0 l/m 6,0 km/h (2 Bft) SW 218 2 min 0,000 mm 0,7 UV-I 330 W/m -1,4 C 7,6 C 12,9 km/h (3 Bft) 97,87 %
25.02.2017 15:10 7,7 C 53 % 1022,5 hPa 0,0 l/m 6,1 km/h (2 Bft) S-SO 167 2 min 0,000 mm 0,7 UV-I 334 W/m -1,3 C 7,7 C 14,5 km/h (3 Bft) 100,00 %
25.02.2017 15:12 7,7 C 53 % 1022,5 hPa 0,0 l/m 3,2 km/h (1 Bft) S-SO 164 2 min 0,000 mm 0,7 UV-I 303 W/m -1,3 C 7,7 C 6,4 km/h (2 Bft) 97,56 %
25.02.2017 15:14 7,7 C 53 % 1022,5 hPa 0,0 l/m 3,4 km/h (1 Bft) W 272 2 min 0,000 mm 0,6 UV-I 319 W/m -1,3 C 7,7 C 6,4 km/h (2 Bft) 100,00 %
25.02.2017 15:16 7,7 C 53 % 1022,6 hPa 0,0 l/m 4,3 km/h (1 Bft) W-SW 247 2 min 0,000 mm 0,6 UV-I 307 W/m -1,3 C 7,7 C 8,0 km/h (2 Bft) 98,00 %
25.02.2017 15:18 7,8 C 53 % 1022,6 hPa 0,0 l/m 8,7 km/h (2 Bft) S-SW 205 2 min 0,000 mm 0,6 UV-I 284 W/m -1,2 C 6,0 C 11,3 km/h (2 Bft) 95,74 %
25.02.2017 15:20 7,7 C 52 % 1022,4 hPa 0,0 l/m 4,5 km/h (1 Bft) S-SW 201 2 min 0,000 mm 0,6 UV-I 277 W/m -1,5 C 7,7 C 9,7 km/h (2 Bft) 98,11 %
25.02.2017 15:22 7,6 C 51 % 1022,4 hPa 0,0 l/m 1,7 km/h (1 Bft) S 186 2 min 0,000 mm 0,6 UV-I 280 W/m -1,9 C 7,6 C 3,2 km/h (1 Bft) 95,74 %
25.02.2017 15:24 7,7 C 54 % 1022,3 hPa 0,0 l/m 4,8 km/h (1 Bft) SW 216 2 min 0,000 mm 0,6 UV-I 275 W/m -1,0 C 7,7 C 8,0 km/h (2 Bft) 93,62 %
25.02.2017 15:26 7,7 C 51 % 1022,2 hPa 0,0 l/m 2,7 km/h (1 Bft) SW 216 2 min 0,000 mm 0,6 UV-I 295 W/m -1,8 C 7,7 C 4,8 km/h (1 Bft) 97,14 %
25.02.2017 15:28 7,6 C 51 % 1022,2 hPa 0,0 l/m 2,9 km/h (1 Bft) S 173 2 min 0,000 mm 0,5 UV-I 295 W/m -1,9 C 7,6 C 9,7 km/h (2 Bft) 92,86 %
25.02.2017 15:30 7,5 C 51 % 1022,1 hPa 0,0 l/m 0,9 km/h (0 Bft) S-SW 194 2 min 0,000 mm 0,5 UV-I 307 W/m -2,0 C 7,5 C 4,8 km/h (1 Bft) 95,74 %
25.02.2017 15:32 7,6 C 52 % 1022,2 hPa 0,0 l/m 0,7 km/h (0 Bft) S-SW 194 2 min 0,000 mm 0,5 UV-I 307 W/m -1,6 C 7,6 C 3,2 km/h (1 Bft) 93,62 %
25.02.2017 15:34 7,6 C 52 % 1022,1 hPa 0,0 l/m 3,0 km/h (1 Bft) W 271 2 min 0,000 mm 0,5 UV-I 289 W/m -1,6 C 7,6 C 6,4 km/h (2 Bft) 95,74 %
25.02.2017 15:36 7,7 C 51 % 1022,1 hPa 0,0 l/m 4,4 km/h (1 Bft) W-NW 284 2 min 0,000 mm 0,5 UV-I 264 W/m -1,8 C 7,7 C 6,4 km/h (2 Bft) 92,68 %
25.02.2017 15:39 7,7 C 53 % 1022,1 hPa 0,0 l/m 1,8 km/h (1 Bft) W-NW 293 3 min 0,000 mm 0,5 UV-I 275 W/m -1,3 C 7,7 C 6,4 km/h (2 Bft) 94,81 %
25.02.2017 15:40 7,7 C 53 % 1022,1 hPa 0,0 l/m 0,4 km/h (0 Bft) W-NW 293 1 min 0,000 mm 0,2 UV-I 266 W/m -1,3 C 7,7 C 1,6 km/h (1 Bft) 95,65 %
25.02.2017 15:42 7,7 C 52 % 1022,1 hPa 0,0 l/m 5,7 km/h (1 Bft) SW 233 2 min 0,000 mm 0,0 UV-I 240 W/m -1,5 C 7,7 C 16,1 km/h (3 Bft) 94,74 %
25.02.2017 15:44 7,7 C 52 % 1022,1 hPa 0,0 l/m 6,0 km/h (2 Bft) W-SW 253 2 min 0,000 mm 0,0 UV-I 250 W/m -1,5 C 7,7 C 9,7 km/h (2 Bft) 96,23 %
25.02.2017 15:46 7,6 C 51 % 1022,1 hPa 0,0 l/m 8,2 km/h (2 Bft) W-SW 252 2 min 0,000 mm 0,0 UV-I 225 W/m -1,9 C 6,2 C 12,9 km/h (3 Bft) 94,00 %
25.02.2017 15:48 7,6 C 51 % 1022,1 hPa 0,0 l/m 5,8 km/h (2 Bft) SW 224 2 min 0,000 mm 0,0 UV-I 190 W/m -1,9 C 7,6 C 8,0 km/h (2 Bft) 95,12 %
25.02.2017 15:50 7,5 C 51 % 1022,1 hPa 0,0 l/m 3,2 km/h (1 Bft) SW 223 2 min 0,000 mm 0,0 UV-I 197 W/m -2,0 C 7,5 C 6,4 km/h (2 Bft) 92,68 %
25.02.2017 15:52 7,6 C 51 % 1022,0 hPa 0,0 l/m 4,7 km/h (1 Bft) W 279 2 min 0,000 mm 0,0 UV-I 210 W/m -1,9 C 7,6 C 8,0 km/h (2 Bft) 94,00 %
25.02.2017 15:54 7,6 C 53 % 1022,1 hPa 0,0 l/m 2,1 km/h (1 Bft) W-NW 288 2 min 0,000 mm 0,0 UV-I 216 W/m -1,4 C 7,6 C 6,4 km/h (2 Bft) 92,31 %
25.02.2017 15:56 7,6 C 53 % 1022,1 hPa 0,0 l/m 2,2 km/h (1 Bft) NW 306 2 min 0,000 mm 0,0 UV-I 206 W/m -1,4 C 7,6 C 4,8 km/h (1 Bft) 96,00 %
25.02.2017 15:58 7,4 C 54 % 1022,1 hPa 0,0 l/m 0,9 km/h (0 Bft) SW 232 2 min 0,000 mm 0,0 UV-I 203 W/m -1,3 C 7,4 C 4,8 km/h (1 Bft) 93,62 %
25.02.2017 16:00 7,4 C 51 % 1022,1 hPa 0,0 l/m 4,2 km/h (1 Bft) W 267 2 min 0,000 mm 0,0 UV-I 218 W/m -2,1 C 7,4 C 6,4 km/h (2 Bft) 92,31 %
25.02.2017 16:02 7,4 C 52 % 1022,0 hPa 0,0 l/m 2,6 km/h (1 Bft) W 266 2 min 0,127 mm 0,0 UV-I 208 W/m -1,8 C 7,4 C 4,8 km/h (1 Bft) 96,23 %
25.02.2017 16:04 7,3 C 51 % 1022,0 hPa 0,0 l/m 2,4 km/h (1 Bft) W 267 2 min 0,000 mm 0,0 UV-I 199 W/m -2,2 C 7,3 C 3,2 km/h (1 Bft) 92,11 %
25.02.2017 16:06 7,3 C 53 % 1022,0 hPa 0,0 l/m 1,0 km/h (0 Bft) W 267 2 min 0,000 mm 0,0 UV-I 199 W/m -1,6 C 7,3 C 3,2 km/h (1 Bft) 96,00 %
25.02.2017 16:09 7,3 C 52 % 1022,0 hPa 0,0 l/m 0,5 km/h (0 Bft) W 267 3 min 0,000 mm 0,0 UV-I 204 W/m -1,9 C 7,3 C 1,6 km/h (1 Bft) 96,10 %
25.02.2017 16:10 7,3 C 52 % 1022,0 hPa 0,0 l/m 0,2 km/h (0 Bft) W 267 1 min 0,000 mm 0,0 UV-I 209 W/m -1,9 C 7,3 C 1,6 km/h (1 Bft) 95,83 %
25.02.2017 16:12 7,3 C 52 % 1022,0 hPa 0,0 l/m 0,8 km/h (0 Bft) W 267 2 min 0,000 mm 0,0 UV-I 202 W/m -1,9 C 7,3 C 3,2 km/h (1 Bft) 95,00 %
25.02.2017 16:14 7,3 C 54 % 1022,0 hPa 0,0 l/m 1,2 km/h (1 Bft) W-NW 286 2 min 0,000 mm 0,0 UV-I 177 W/m -1,4 C 7,3 C 3,2 km/h (1 Bft) 94,34 %
25.02.2017 16:16 7,3 C 54 % 1021,9 hPa 0,0 l/m 0,9 km/h (0 Bft) W-NW 286 2 min 0,000 mm 0,0 UV-I 150 W/m -1,4 C 7,3 C 3,2 km/h (1 Bft) 94,74 %
25.02.2017 16:18 7,3 C 55 % 1021,8 hPa 0,0 l/m 0,9 km/h (0 Bft) W-NW 286 2 min 0,000 mm 0,0 UV-I 145 W/m -1,1 C 7,3 C 3,2 km/h (1 Bft) 97,87 %
25.02.2017 16:20 7,2 C 54 % 1021,8 hPa 0,0 l/m 1,6 km/h (1 Bft) W-NW 286 2 min 0,000 mm 0,0 UV-I 150 W/m -1,5 C 7,2 C 3,2 km/h (1 Bft) 95,74 %
25.02.2017 16:22 7,3 C 54 % 1021,8 hPa 0,0 l/m 1,0 km/h (0 Bft) W-NW 286 2 min 0,000 mm 0,0 UV-I 163 W/m -1,4 C 7,3 C 3,2 km/h (1 Bft) 98,00 %
25.02.2017 16:24 7,2 C 56 % 1021,8 hPa 0,0 l/m 0,5 km/h (0 Bft) W-NW 286 2 min 0,000 mm 0,0 UV-I 164 W/m -1,0 C 7,2 C 1,6 km/h (1 Bft) 95,74 %
25.02.2017 16:26 7,2 C 55 % 1021,8 hPa 0,0 l/m 1,4 km/h (1 Bft) W-NW 286 2 min 0,000 mm 0,0 UV-I 165 W/m -1,2 C 7,2 C 3,2 km/h (1 Bft) 95,74 %
25.02.2017 16:28 7,2 C 54 % 1021,8 hPa 0,0 l/m 0,6 km/h (0 Bft) W-NW 286 2 min 0,000 mm 0,0 UV-I 149 W/m -1,5 C 7,2 C 3,2 km/h (1 Bft) 97,87 %
25.02.2017 16:30 7,2 C 53 % 1021,8 hPa 0,0 l/m 0,1 km/h (0 Bft) W-NW 286 2 min 0,000 mm 0,0 UV-I 114 W/m -1,7 C 7,2 C 1,6 km/h (1 Bft) 95,74 %
25.02.2017 16:32 7,2 C 56 % 1021,8 hPa 0,0 l/m 0,5 km/h (0 Bft) W-NW 286 2 min 0,000 mm 0,0 UV-I 100 W/m -1,0 C 7,2 C 1,6 km/h (1 Bft) 96,23 %
25.02.2017 16:34 7,1 C 57 % 1021,7 hPa 0,0 l/m 0,3 km/h (0 Bft) W-NW 286 0 min 0,000 mm 0,0 UV-I 84 W/m -0,8 C 7,1 C 1,6 km/h (1 Bft) 100,00 %
25.02.2017 16:36 6,9 C 55 % 1021,7 hPa 0,0 l/m 0,6 km/h (0 Bft) W-NW 292 0 min 0,000 mm 0,0 UV-I 80 W/m -1,5 C 6,9 C 1,6 km/h (1 Bft) 92,73 %
25.02.2017 16:38 6,9 C 56 % 1021,6 hPa 0,0 l/m 1,6 km/h (1 Bft) W-NW 297 0 min 0,000 mm 0,0 UV-I 73 W/m -1,3 C 6,9 C 4,8 km/h (1 Bft) 97,44 %
25.02.2017 16:40 6,9 C 57 % 1021,5 hPa 0,0 l/m 1,3 km/h (1 Bft) W-NW 297 0 min 0,000 mm 0,0 UV-I 72 W/m -1,0 C 6,9 C 3,2 km/h (1 Bft) 96,23 %
25.02.2017 16:42 6,8 C 58 % 1021,5 hPa 0,0 l/m 0,2 km/h (0 Bft) W-NW 297 0 min 0,000 mm 0,0 UV-I 81 W/m -0,9 C 6,8 C 1,6 km/h (1 Bft) 95,45 %
25.02.2017 16:44 6,7 C 55 % 1021,4 hPa 0,0 l/m 0,3 km/h (0 Bft) W-NW 297 2 min 0,000 mm 0,0 UV-I 93 W/m -1,7 C 6,7 C 3,2 km/h (1 Bft) 97,87 %
25.02.2017 16:46 6,8 C 56 % 1021,4 hPa 0,0 l/m 1,8 km/h (1 Bft) W-NW 297 2 min 0,000 mm 0,0 UV-I 96 W/m -1,4 C 6,8 C 3,2 km/h (1 Bft) 98,00 %
25.02.2017 16:48 6,8 C 54 % 1021,4 hPa 0,0 l/m 0,0 km/h (0 Bft) W-NW 297 2 min 0,000 mm 0,0 UV-I 89 W/m -1,8 C 6,8 C 0,0 km/h (0 Bft) 97,87 %
25.02.2017 16:50 6,8 C 53 % 1021,4 hPa 0,0 l/m 0,0 km/h (0 Bft) W-NW 297 2 min 0,000 mm 0,0 UV-I 92 W/m -2,1 C 6,8 C 0,0 km/h (0 Bft) 95,74 %
25.02.2017 16:52 6,8 C 55 % 1021,4 hPa 0,0 l/m 0,0 km/h (0 Bft) W-NW 297 2 min 0,000 mm 0,0 UV-I 99 W/m -1,6 C 6,8 C 0,0 km/h (0 Bft) 97,87 %
25.02.2017 16:54 6,8 C 55 % 1021,4 hPa 0,0 l/m 0,2 km/h (0 Bft) W-NW 297 2 min 0,000 mm 0,0 UV-I 100 W/m -1,6 C 6,8 C 1,6 km/h (1 Bft) 97,14 %
25.02.2017 16:56 6,8 C 57 % 1021,4 hPa 0,0 l/m 1,3 km/h (1 Bft) W-NW 297 2 min 0,000 mm 0,0 UV-I 96 W/m -1,1 C 6,8 C 3,2 km/h (1 Bft) 96,23 %
25.02.2017 16:58 6,8 C 58 % 1021,5 hPa 0,0 l/m 1,8 km/h (1 Bft) W-NW 297 2 min 0,000 mm 0,0 UV-I 80 W/m -0,9 C 6,8 C 3,2 km/h (1 Bft) 94,34 %
25.02.2017 17:00 6,8 C 56 % 1021,5 hPa 0,0 l/m 2,0 km/h (1 Bft) W-NW 297 2 min 0,076 mm 0,0 UV-I 65 W/m -1,4 C 6,8 C 3,2 km/h (1 Bft) 98,00 %
25.02.2017 17:02 6,8 C 57 % 1021,4 hPa 0,0 l/m 2,6 km/h (1 Bft) W-NW 297 2 min 0,000 mm 0,0 UV-I 84 W/m -1,1 C 6,8 C 3,2 km/h (1 Bft) 91,43 %
25.02.2017 17:04 6,7 C 57 % 1021,4 hPa 0,0 l/m 2,2 km/h (1 Bft) W-NW 297 2 min 0,000 mm 0,0 UV-I 87 W/m -1,2 C 6,7 C 3,2 km/h (1 Bft) 96,23 %
25.02.2017 17:06 6,7 C 56 % 1021,4 hPa 0,0 l/m 2,3 km/h (1 Bft) W-NW 297 2 min 0,000 mm 0,0 UV-I 81 W/m -1,4 C 6,7 C 3,2 km/h (1 Bft) 98,00 %
25.02.2017 17:08 6,6 C 60 % 1021,5 hPa 0,0 l/m 0,8 km/h (0 Bft) N-NO 23 2 min 0,000 mm 0,0 UV-I 76 W/m -0,6 C 6,6 C 4,8 km/h (1 Bft) 96,00 %
25.02.2017 17:10 6,5 C 59 % 1021,5 hPa 0,0 l/m 2,9 km/h (1 Bft) N-NO 13 2 min 0,000 mm 0,0 UV-I 73 W/m -0,9 C 6,5 C 9,7 km/h (2 Bft) 95,12 %
25.02.2017 17:12 6,4 C 62 % 1021,5 hPa 0,0 l/m 0,3 km/h (0 Bft) N 10 2 min 0,000 mm 0,0 UV-I 68 W/m -0,3 C 6,4 C 1,6 km/h (1 Bft) 92,31 %
25.02.2017 17:14 6,2 C 63 % 1021,5 hPa 0,0 l/m 4,6 km/h (1 Bft) N-NO 30 2 min 0,000 mm 0,0 UV-I 61 W/m -0,3 C 6,2 C 8,0 km/h (2 Bft) 94,34 %
25.02.2017 17:16 6,2 C 62 % 1021,5 hPa 0,0 l/m 6,5 km/h (2 Bft) NO 44 2 min 0,000 mm 0,0 UV-I 58 W/m -0,5 C 6,1 C 8,0 km/h (2 Bft) 96,15 %
25.02.2017 17:18 6,2 C 62 % 1021,5 hPa 0,0 l/m 6,4 km/h (2 Bft) N-NO 23 2 min 0,000 mm 0,0 UV-I 52 W/m -0,5 C 6,2 C 9,7 km/h (2 Bft) 100,00 %
25.02.2017 17:20 6,1 C 63 % 1021,5 hPa 0,0 l/m 6,9 km/h (2 Bft) N-NO 30 2 min 0,000 mm 0,0 UV-I 45 W/m -0,4 C 5,7 C 8,0 km/h (2 Bft) 95,74 %
25.02.2017 17:22 6,1 C 63 % 1021,5 hPa 0,0 l/m 7,5 km/h (2 Bft) N-NO 17 2 min 0,000 mm 0,0 UV-I 35 W/m -0,4 C 5,2 C 12,9 km/h (3 Bft) 97,73 %
25.02.2017 17:24 6,0 C 64 % 1021,5 hPa 0,0 l/m 8,7 km/h (2 Bft) N-NO 28 2 min 0,000 mm 0,0 UV-I 28 W/m -0,3 C 4,1 C 12,9 km/h (3 Bft) 98,00 %
25.02.2017 17:26 5,9 C 65 % 1021,6 hPa 0,0 l/m 7,4 km/h (2 Bft) N-NO 24 2 min 0,000 mm 0,0 UV-I 24 W/m -0,2 C 5,0 C 9,7 km/h (2 Bft) 96,23 %
25.02.2017 17:28 5,8 C 65 % 1021,6 hPa 0,0 l/m 8,1 km/h (2 Bft) NO 38 2 min 0,000 mm 0,0 UV-I 21 W/m -0,3 C 4,4 C 11,3 km/h (2 Bft) 97,87 %
25.02.2017 17:30 5,7 C 66 % 1021,6 hPa 0,0 l/m 6,6 km/h (2 Bft) NO 35 2 min 0,000 mm 0,0 UV-I 18 W/m -0,1 C 5,6 C 8,0 km/h (2 Bft) 89,47 %
25.02.2017 17:32 5,7 C 66 % 1021,6 hPa 0,0 l/m 4,5 km/h (1 Bft) N-NO 33 0 min 0,000 mm 0,0 UV-I 15 W/m -0,1 C 5,7 C 6,4 km/h (2 Bft) 98,00 %
25.02.2017 17:34 5,6 C 66 % 1021,5 hPa 0,0 l/m 4,3 km/h (1 Bft) N-NO 28 0 min 0,000 mm 0,0 UV-I 13 W/m -0,2 C 5,6 C 6,4 km/h (2 Bft) 95,74 %
25.02.2017 17:36 5,5 C 66 % 1021,5 hPa 0,0 l/m 6,0 km/h (2 Bft) N-NO 21 0 min 0,000 mm 0,0 UV-I 11 W/m -0,3 C 5,5 C 8,0 km/h (2 Bft) 97,37 %
25.02.2017 17:38 5,4 C 67 % 1021,4 hPa 0,0 l/m 6,8 km/h (2 Bft) NO 36 0 min 0,000 mm 0,0 UV-I 9 W/m -0,2 C 5,1 C 9,7 km/h (2 Bft) 98,21 %
25.02.2017 17:40 5,3 C 67 % 1021,4 hPa 0,0 l/m 6,1 km/h (2 Bft) N-NO 28 0 min 0,000 mm 0,0 UV-I 8 W/m -0,3 C 5,3 C 8,0 km/h (2 Bft) 96,00 %
25.02.2017 17:42 5,2 C 68 % 1021,5 hPa 0,0 l/m 6,4 km/h (2 Bft) N-NO 28 0 min 0,000 mm 0,0 UV-I 7 W/m -0,2 C 5,2 C 9,7 km/h (2 Bft) 100,00 %
25.02.2017 17:44 5,1 C 68 % 1021,4 hPa 0,0 l/m 7,3 km/h (2 Bft) N-NO 33 0 min 0,000 mm 0,0 UV-I 6 W/m -0,3 C 4,3 C 11,3 km/h (2 Bft) 96,00 %
25.02.2017 17:46 5,0 C 68 % 1021,4 hPa 0,0 l/m 7,1 km/h (2 Bft) NO 39 0 min 0,000 mm 0,0 UV-I 5 W/m -0,4 C 4,4 C 9,7 km/h (2 Bft) 98,00 %
25.02.2017 17:48 4,9 C 68 % 1021,4 hPa 0,0 l/m 8,1 km/h (2 Bft) NO 44 0 min 0,000 mm 0,0 UV-I 5 W/m -0,5 C 3,4 C 11,3 km/h (2 Bft) 100,00 %
25.02.2017 17:50 4,9 C 68 % 1021,5 hPa 0,0 l/m 6,9 km/h (2 Bft) NO 48 0 min 0,000 mm 0,0 UV-I 5 W/m -0,5 C 4,5 C 9,7 km/h (2 Bft) 97,01 %
25.02.2017 17:52 4,9 C 68 % 1021,4 hPa 0,0 l/m 5,4 km/h (1 Bft) NO 51 0 min 0,000 mm 0,0 UV-I 5 W/m -0,5 C 4,9 C 8,0 km/h (2 Bft) 97,44 %
25.02.2017 17:54 4,9 C 69 % 1021,4 hPa 0,0 l/m 5,4 km/h (1 Bft) NO 43 0 min 0,000 mm 0,0 UV-I 4 W/m -0,3 C 4,9 C 8,0 km/h (2 Bft) 100,00 %
25.02.2017 17:56 4,8 C 69 % 1021,4 hPa 0,0 l/m 5,7 km/h (1 Bft) N-NO 32 0 min 0,000 mm 0,0 UV-I 0 W/m -0,4 C 4,8 C 8,0 km/h (2 Bft) 96,61 %
25.02.2017 17:58 4,7 C 69 % 1021,4 hPa 0,0 l/m 5,5 km/h (1 Bft) NO 40 0 min 0,000 mm 0,0 UV-I 0 W/m -0,5 C 4,7 C 6,4 km/h (2 Bft) 100,00 %
25.02.2017 18:00 4,7 C 69 % 1021,5 hPa 0,0 l/m 5,0 km/h (1 Bft) NO 39 0 min 0,000 mm 0,0 UV-I 0 W/m -0,5 C 4,7 C 6,4 km/h (2 Bft) 95,74 %
25.02.2017 18:02 4,7 C 69 % 1021,5 hPa 0,0 l/m 4,0 km/h (1 Bft) NO 44 0 min 0,026 mm 0,0 UV-I 0 W/m -0,5 C 4,7 C 4,8 km/h (1 Bft) 97,37 %
25.02.2017 18:04 4,7 C 69 % 1021,5 hPa 0,0 l/m 3,5 km/h (1 Bft) NO 50 0 min 0,000 mm 0,0 UV-I 0 W/m -0,5 C 4,7 C 4,8 km/h (1 Bft) 96,23 %
25.02.2017 18:06 4,7 C 69 % 1021,4 hPa 0,0 l/m 3,4 km/h (1 Bft) NO 50 0 min 0,000 mm 0,0 UV-I 0 W/m -0,5 C 4,7 C 4,8 km/h (1 Bft) 93,62 %
25.02.2017 18:08 4,7 C 69 % 1021,4 hPa 0,0 l/m 3,8 km/h (1 Bft) NO 50 0 min 0,000 mm 0,0 UV-I 0 W/m -0,5 C 4,7 C 6,4 km/h (2 Bft) 98,00 %
25.02.2017 18:10 4,4 C 69 % 1021,5 hPa 0,0 l/m 4,0 km/h (1 Bft) NO 51 0 min 0,000 mm 0,0 UV-I 0 W/m -0,8 C 4,4 C 4,8 km/h (1 Bft) 97,37 %
25.02.2017 18:12 4,2 C 71 % 1021,5 hPa 0,0 l/m 4,8 km/h (1 Bft) O-NO 71 0 min 0,000 mm 0,0 UV-I 0 W/m -0,6 C 4,2 C 6,4 km/h (2 Bft) 100,00 %
25.02.2017 18:14 3,9 C 71 % 1021,4 hPa 0,0 l/m 4,8 km/h (1 Bft) O-NO 71 0 min 0,000 mm 0,0 UV-I 0 W/m -0,9 C 3,9 C 6,4 km/h (2 Bft) 98,00 %
25.02.2017 18:16 3,8 C 71 % 1021,4 hPa 0,0 l/m 4,5 km/h (1 Bft) O-NO 71 0 min 0,000 mm 0,0 UV-I 0 W/m -1,0 C 3,8 C 4,8 km/h (1 Bft) 98,00 %
25.02.2017 18:18 3,7 C 71 % 1021,4 hPa 0,0 l/m 5,3 km/h (1 Bft) O-NO 72 0 min 0,000 mm 0,0 UV-I 0 W/m -1,1 C 3,7 C 8,0 km/h (2 Bft) 100,00 %
25.02.2017 18:20 3,7 C 71 % 1021,4 hPa 0,0 l/m 5,7 km/h (1 Bft) O-NO 70 0 min 0,000 mm 0,0 UV-I 0 W/m -1,1 C 3,7 C 8,0 km/h (2 Bft) 98,11 %
25.02.2017 18:22 3,8 C 71 % 1021,4 hPa 0,0 l/m 4,2 km/h (1 Bft) O-NO 70 0 min 0,000 mm 0,0 UV-I 0 W/m -1,0 C 3,8 C 4,8 km/h (1 Bft) 100,00 %
25.02.2017 18:24 3,8 C 71 % 1021,5 hPa 0,0 l/m 4,7 km/h (1 Bft) O-NO 70 0 min 0,000 mm 0,0 UV-I 0 W/m -1,0 C 3,8 C 6,4 km/h (2 Bft) 98,21 %
25.02.2017 18:26 3,7 C 71 % 1021,5 hPa 0,0 l/m 5,7 km/h (1 Bft) O-NO 70 0 min 0,000 mm 0,0 UV-I 0 W/m -1,1 C 3,7 C 6,4 km/h (2 Bft) 97,87 %
25.02.2017 18:28 3,7 C 71 % 1021,5 hPa 0,0 l/m 4,8 km/h (1 Bft) O-NO 69 0 min 0,000 mm 0,0 UV-I 0 W/m -1,1 C 3,7 C 6,4 km/h (2 Bft) 100,00 %
25.02.2017 18:30 3,7 C 71 % 1021,4 hPa 0,0 l/m 3,9 km/h (1 Bft) O-NO 61 0 min 0,000 mm 0,0 UV-I 0 W/m -1,1 C 3,7 C 4,8 km/h (1 Bft) 100,00 %
25.02.2017 18:32 3,8 C 71 % 1021,5 hPa 0,0 l/m 3,0 km/h (1 Bft) O-NO 61 0 min 0,000 mm 0,0 UV-I 0 W/m -1,0 C 3,8 C 4,8 km/h (1 Bft) 100,00 %
25.02.2017 18:34 3,8 C 70 % 1021,5 hPa 0,0 l/m 2,9 km/h (1 Bft) O-NO 61 0 min 0,000 mm 0,0 UV-I 0 W/m -1,2 C 3,8 C 3,2 km/h (1 Bft) 100,00 %
25.02.2017 18:36 3,8 C 71 % 1021,5 hPa 0,0 l/m 3,5 km/h (1 Bft) O-NO 61 0 min 0,000 mm 0,0 UV-I 0 W/m -1,0 C 3,8 C 4,8 km/h (1 Bft) 100,00 %
25.02.2017 18:38 3,7 C 71 % 1021,5 hPa 0,0 l/m 3,1 km/h (1 Bft) O-NO 61 0 min 0,000 mm 0,0 UV-I 0 W/m -1,1 C 3,7 C 4,8 km/h (1 Bft) 97,62 %
25.02.2017 18:40 3,7 C 71 % 1021,6 hPa 0,0 l/m 3,1 km/h (1 Bft) O-NO 61 0 min 0,000 mm 0,0 UV-I 0 W/m -1,1 C 3,7 C 4,8 km/h (1 Bft) 100,00 %
25.02.2017 18:42 3,8 C 71 % 1021,5 hPa 0,0 l/m 3,3 km/h (1 Bft) O-NO 61 0 min 0,000 mm 0,0 UV-I 0 W/m -1,0 C 3,8 C 4,8 km/h (1 Bft) 95,12 %
25.02.2017 18:44 3,7 C 71 % 1021,6 hPa 0,0 l/m 2,6 km/h (1 Bft) O-NO 61 0 min 0,000 mm 0,0 UV-I 0 W/m -1,1 C 3,7 C 4,8 km/h (1 Bft) 98,00 %
25.02.2017 18:46 3,7 C 71 % 1021,7 hPa 0,0 l/m 1,6 km/h (1 Bft) O-NO 61 0 min 0,000 mm 0,0 UV-I 0 W/m -1,1 C 3,7 C 3,2 km/h (1 Bft) 95,74 %
25.02.2017 18:48 3,7 C 71 % 1021,7 hPa 0,0 l/m 1,6 km/h (1 Bft) O-NO 61 0 min 0,000 mm 0,0 UV-I 0 W/m -1,1 C 3,7 C 3,2 km/h (1 Bft) 97,56 %
25.02.2017 18:50 3,7 C 71 % 1021,7 hPa 0,0 l/m 1,6 km/h (1 Bft) O-NO 61 0 min 0,000 mm 0,0 UV-I 0 W/m -1,1 C 3,7 C 3,2 km/h (1 Bft) 92,45 %
25.02.2017 18:52 3,7 C 71 % 1021,7 hPa 0,0 l/m 2,3 km/h (1 Bft) O-NO 61 0 min 0,000 mm 0,0 UV-I 0 W/m -1,1 C 3,7 C 3,2 km/h (1 Bft) 95,12 %
25.02.2017 18:54 3,6 C 71 % 1021,7 hPa 0,0 l/m 1,3 km/h (1 Bft) O-NO 61 0 min 0,000 mm 0,0 UV-I 0 W/m -1,2 C 3,6 C 1,6 km/h (1 Bft) 94,34 %
25.02.2017 18:56 3,5 C 72 % 1021,7 hPa 0,0 l/m 0,4 km/h (0 Bft) O-NO 61 0 min 0,000 mm 0,0 UV-I 0 W/m -1,1 C 3,5 C 1,6 km/h (1 Bft) 93,62 %
25.02.2017 18:58 3,4 C 72 % 1021,7 hPa 0,0 l/m 0,0 km/h (0 Bft) O-NO 61 0 min 0,000 mm 0,0 UV-I 0 W/m -1,2 C 3,4 C 1,6 km/h (1 Bft) 97,87 %
25.02.2017 19:00 3,3 C 73 % 1021,7 hPa 0,0 l/m 0,1 km/h (0 Bft) O-NO 61 0 min 0,000 mm 0,0 UV-I 0 W/m -1,1 C 3,3 C 1,6 km/h (1 Bft) 96,00 %
25.02.2017 19:02 3,2 C 73 % 1021,8 hPa 0,0 l/m 1,1 km/h (1 Bft) O-NO 61 0 min 0,025 mm 0,0 UV-I 0 W/m -1,2 C 3,2 C 3,2 km/h (1 Bft) 92,68 %
25.02.2017 19:04 3,2 C 73 % 1021,7 hPa 0,0 l/m 2,6 km/h (1 Bft) O-NO 61 0 min 0,000 mm 0,0 UV-I 0 W/m -1,2 C 3,2 C 3,2 km/h (1 Bft) 96,00 %
25.02.2017 19:06 3,1 C 73 % 1021,7 hPa 0,0 l/m 2,9 km/h (1 Bft) O-NO 61 0 min 0,000 mm 0,0 UV-I 0 W/m -1,3 C 3,1 C 4,8 km/h (1 Bft) 96,00 %
25.02.2017 19:08 2,9 C 74 % 1021,7 hPa 0,0 l/m 2,5 km/h (1 Bft) O-NO 61 0 min 0,000 mm 0,0 UV-I 0 W/m -1,3 C 2,9 C 3,2 km/h (1 Bft) 97,56 %
25.02.2017 19:10 2,9 C 74 % 1021,7 hPa 0,0 l/m 3,0 km/h (1 Bft) O-NO 61 0 min 0,000 mm 0,0 UV-I 0 W/m -1,3 C 2,9 C 4,8 km/h (1 Bft) 95,45 %
25.02.2017 19:12 3,0 C 74 % 1021,7 hPa 0,0 l/m 2,5 km/h (1 Bft) O-NO 61 0 min 0,000 mm 0,0 UV-I 0 W/m -1,2 C 3,0 C 3,2 km/h (1 Bft) 96,00 %
25.02.2017 19:14 3,0 C 75 % 1021,7 hPa 0,0 l/m 2,2 km/h (1 Bft) O-NO 61 0 min 0,000 mm 0,0 UV-I 0 W/m -1,0 C 3,0 C 3,2 km/h (1 Bft) 98,00 %
25.02.2017 19:16 2,9 C 75 % 1021,7 hPa 0,0 l/m 2,1 km/h (1 Bft) O-NO 61 0 min 0,000 mm 0,0 UV-I 0 W/m -1,1 C 2,9 C 3,2 km/h (1 Bft) 94,87 %
25.02.2017 19:18 2,9 C 75 % 1021,7 hPa 0,0 l/m 2,3 km/h (1 Bft) O-NO 61 0 min 0,000 mm 0,0 UV-I 0 W/m -1,1 C 2,9 C 3,2 km/h (1 Bft) 98,00 %
25.02.2017 19:20 2,8 C 75 % 1021,6 hPa 0,0 l/m 2,8 km/h (1 Bft) O-NO 61 0 min 0,000 mm 0,0 UV-I 0 W/m -1,2 C 2,8 C 4,8 km/h (1 Bft) 92,45 %
25.02.2017 19:22 2,7 C 75 % 1021,6 hPa 0,0 l/m 3,0 km/h (1 Bft) O-NO 61 0 min 0,000 mm 0,0 UV-I 0 W/m -1,3 C 2,7 C 3,2 km/h (1 Bft) 100,00 %
25.02.2017 19:24 2,7 C 75 % 1021,6 hPa 0,0 l/m 3,0 km/h (1 Bft) O-NO 61 0 min 0,000 mm 0,0 UV-I 0 W/m -1,3 C 2,7 C 4,8 km/h (1 Bft) 94,34 %
25.02.2017 19:26 2,6 C 75 % 1021,6 hPa 0,0 l/m 2,5 km/h (1 Bft) O-NO 61 0 min 0,000 mm 0,0 UV-I 0 W/m -1,4 C 2,6 C 3,2 km/h (1 Bft) 98,00 %
25.02.2017 19:28 2,6 C 75 % 1021,5 hPa 0,0 l/m 3,0 km/h (1 Bft) O-NO 61 0 min 0,000 mm 0,0 UV-I 0 W/m -1,4 C 2,6 C 3,2 km/h (1 Bft) 95,74 %
25.02.2017 19:30 2,5 C 75 % 1021,5 hPa 0,0 l/m 2,7 km/h (1 Bft) O-NO 61 0 min 0,000 mm 0,0 UV-I 0 W/m -1,5 C 2,5 C 3,2 km/h (1 Bft) 97,37 %
25.02.2017 19:32 2,4 C 75 % 1021,5 hPa 0,0 l/m 2,7 km/h (1 Bft) O-NO 61 0 min 0,000 mm 0,0 UV-I 0 W/m -1,6 C 2,4 C 3,2 km/h (1 Bft) 96,23 %
25.02.2017 19:34 2,3 C 76 % 1021,5 hPa 0,0 l/m 2,9 km/h (1 Bft) O-NO 61 0 min 0,000 mm 0,0 UV-I 0 W/m -1,5 C 2,3 C 3,2 km/h (1 Bft) 97,37 %
25.02.2017 19:36 2,3 C 76 % 1021,5 hPa 0,0 l/m 2,8 km/h (1 Bft) O-NO 61 0 min 0,000 mm 0,0 UV-I 0 W/m -1,5 C 2,3 C 3,2 km/h (1 Bft) 98,00 %
25.02.2017 19:38 2,4 C 75 % 1021,5 hPa 0,0 l/m 0,5 km/h (0 Bft) O-NO 61 0 min 0,000 mm 0,0 UV-I 0 W/m -1,6 C 2,4 C 1,6 km/h (1 Bft) 95,74 %
25.02.2017 19:40 2,6 C 74 % 1021,6 hPa 0,0 l/m 1,1 km/h (1 Bft) O-NO 61 0 min 0,000 mm 0,0 UV-I 0 W/m -1,6 C 2,6 C 1,6 km/h (1 Bft) 98,11 %
25.02.2017 19:42 2,7 C 74 % 1021,6 hPa 0,0 l/m 0,1 km/h (0 Bft) O-NO 61 0 min 0,000 mm 0,0 UV-I 0 W/m -1,5 C 2,7 C 1,6 km/h (1 Bft) 95,74 %
25.02.2017 19:44 2,8 C 73 % 1021,7 hPa 0,0 l/m 0,0 km/h (0 Bft) O-NO 61 0 min 0,000 mm 0,0 UV-I 0 W/m -1,5 C 2,8 C 0,0 km/h (0 Bft) 96,00 %
25.02.2017 19:46 2,8 C 73 % 1021,6 hPa 0,0 l/m 0,0 km/h (0 Bft) O-NO 61 0 min 0,000 mm 0,0 UV-I 0 W/m -1,5 C 2,8 C 0,0 km/h (0 Bft) 95,12 %
25.02.2017 19:48 2,5 C 74 % 1021,6 hPa 0,0 l/m 0,0 km/h (0 Bft) O-NO 61 0 min 0,000 mm 0,0 UV-I 0 W/m -1,7 C 2,5 C 0,0 km/h (0 Bft) 94,00 %
25.02.2017 19:50 2,2 C 75 % 1021,6 hPa 0,0 l/m 0,0 km/h (0 Bft) O-NO 61 0 min 0,000 mm 0,0 UV-I 0 W/m -1,8 C 2,2 C 0,0 km/h (0 Bft) 97,44 %
25.02.2017 19:52 2,0 C 76 % 1021,6 hPa 0,0 l/m 0,0 km/h (0 Bft) O-NO 61 0 min 0,000 mm 0,0 UV-I 0 W/m -1,8 C 2,0 C 0,0 km/h (0 Bft) 96,00 %
25.02.2017 19:54 2,0 C 76 % 1021,6 hPa 0,0 l/m 1,4 km/h (1 Bft) O-NO 61 0 min 0,000 mm 0,0 UV-I 0 W/m -1,8 C 2,0 C 3,2 km/h (1 Bft) 100,00 %
25.02.2017 19:56 1,9 C 77 % 1021,6 hPa 0,0 l/m 1,4 km/h (1 Bft) O-NO 61 0 min 0,000 mm 0,0 UV-I 0 W/m -1,7 C 1,9 C 3,2 km/h (1 Bft) 96,00 %
25.02.2017 19:58 1,8 C 77 % 1021,5 hPa 0,0 l/m 1,7 km/h (1 Bft) O-NO 61 0 min 0,000 mm 0,0 UV-I 0 W/m -1,8 C 1,8 C 3,2 km/h (1 Bft) 97,87 %
25.02.2017 20:00 1,7 C 78 % 1021,5 hPa 0,0 l/m 2,1 km/h (1 Bft) O-NO 61 0 min 0,000 mm 0,0 UV-I 0 W/m -1,7 C 1,7 C 3,2 km/h (1 Bft) 98,00 %
25.02.2017 20:02 1,7 C 78 % 1021,6 hPa 0,0 l/m 1,8 km/h (1 Bft) O-NO 61 0 min 0,000 mm 0,0 UV-I 0 W/m -1,7 C 1,7 C 3,2 km/h (1 Bft) 100,00 %
25.02.2017 20:04 1,6 C 79 % 1021,6 hPa 0,0 l/m 3,0 km/h (1 Bft) O-NO 61 0 min 0,000 mm 0,0 UV-I 0 W/m -1,6 C 1,6 C 4,8 km/h (1 Bft) 95,74 %
25.02.2017 20:06 1,4 C 79 % 1021,5 hPa 0,0 l/m 2,2 km/h (1 Bft) O-NO 61 0 min 0,000 mm 0,0 UV-I 0 W/m -1,8 C 1,4 C 3,2 km/h (1 Bft) 95,74 %
25.02.2017 20:08 1,5 C 79 % 1021,5 hPa 0,0 l/m 3,1 km/h (1 Bft) O-NO 61 0 min 0,000 mm 0,0 UV-I 0 W/m -1,7 C 1,5 C 4,8 km/h (1 Bft) 100,00 %
25.02.2017 20:10 1,6 C 78 % 1021,6 hPa 0,0 l/m 2,4 km/h (1 Bft) O-NO 61 0 min 0,000 mm 0,0 UV-I 0 W/m -1,8 C 1,6 C 3,2 km/h (1 Bft) 96,00 %
25.02.2017 20:12 1,7 C 78 % 1021,5 hPa 0,0 l/m 5,1 km/h (1 Bft) O-NO 70 0 min 0,000 mm 0,0 UV-I 0 W/m -1,7 C 1,7 C 8,0 km/h (2 Bft) 97,37 %
25.02.2017 20:14 1,9 C 77 % 1021,6 hPa 0,0 l/m 4,7 km/h (1 Bft) O-NO 72 0 min 0,000 mm 0,0 UV-I 0 W/m -1,7 C 1,9 C 6,4 km/h (2 Bft) 94,00 %
25.02.2017 20:16 2,3 C 76 % 1021,6 hPa 0,0 l/m 4,8 km/h (1 Bft) O-NO 71 0 min 0,000 mm 0,0 UV-I 0 W/m -1,5 C 2,3 C 6,4 km/h (2 Bft) 93,62 %
25.02.2017 20:18 2,7 C 74 % 1021,6 hPa 0,0 l/m 5,5 km/h (1 Bft) O-NO 74 0 min 0,000 mm 0,0 UV-I 0 W/m -1,5 C 2,7 C 8,0 km/h (2 Bft) 98,11 %
25.02.2017 20:20 2,9 C 73 % 1021,6 hPa 0,0 l/m 3,7 km/h (1 Bft) O-NO 74 0 min 0,000 mm 0,0 UV-I 0 W/m -1,5 C 2,9 C 4,8 km/h (1 Bft) 97,37 %
25.02.2017 20:22 3,0 C 72 % 1021,5 hPa 0,0 l/m 4,4 km/h (1 Bft) O-NO 74 0 min 0,000 mm 0,0 UV-I 0 W/m -1,5 C 3,0 C 4,8 km/h (1 Bft) 92,45 %
25.02.2017 20:24 3,1 C 72 % 1021,5 hPa 0,0 l/m 4,8 km/h (1 Bft) O 80 0 min 0,000 mm 0,0 UV-I 0 W/m -1,4 C 3,1 C 8,0 km/h (2 Bft) 95,12 %
25.02.2017 20:26 3,1 C 72 % 1021,5 hPa 0,0 l/m 5,0 km/h (1 Bft) O 81 0 min 0,000 mm 0,0 UV-I 0 W/m -1,4 C 3,1 C 8,0 km/h (2 Bft) 93,62 %
25.02.2017 20:28 3,0 C 72 % 1021,5 hPa 0,0 l/m 4,6 km/h (1 Bft) O 80 0 min 0,000 mm 0,0 UV-I 0 W/m -1,5 C 3,0 C 6,4 km/h (2 Bft) 96,00 %
25.02.2017 20:30 2,9 C 72 % 1021,5 hPa 0,0 l/m 3,6 km/h (1 Bft) O 80 0 min 0,000 mm 0,0 UV-I 0 W/m -1,6 C 2,9 C 4,8 km/h (1 Bft) 95,45 %
25.02.2017 20:32 2,9 C 72 % 1021,5 hPa 0,0 l/m 2,5 km/h (1 Bft) O 80 0 min 0,000 mm 0,0 UV-I 0 W/m -1,6 C 2,9 C 3,2 km/h (1 Bft) 100,00 %
25.02.2017 20:34 2,9 C 72 % 1021,5 hPa 0,0 l/m 2,5 km/h (1 Bft) O 80 0 min 0,000 mm 0,0 UV-I 0 W/m -1,6 C 2,9 C 3,2 km/h (1 Bft) 100,00 %
25.02.2017 20:36 2,9 C 72 % 1021,5 hPa 0,0 l/m 2,5 km/h (1 Bft) O 80 0 min 0,000 mm 0,0 UV-I 0 W/m -1,6 C 2,9 C 3,2 km/h (1 Bft) 94,74 %
25.02.2017 20:38 2,8 C 72 % 1021,7 hPa 0,0 l/m 2,7 km/h (1 Bft) O 80 0 min 0,000 mm 0,0 UV-I 0 W/m -1,7 C 2,8 C 3,2 km/h (1 Bft) 100,00 %
25.02.2017 20:40 2,4 C 74 % 1021,7 hPa 0,0 l/m 1,0 km/h (0 Bft) O 80 0 min 0,000 mm 0,0 UV-I 0 W/m -1,7 C 2,4 C 3,2 km/h (1 Bft) 100,00 %
25.02.2017 20:42 2,2 C 74 % 1021,7 hPa 0,0 l/m 1,8 km/h (1 Bft) O 80 0 min 0,000 mm 0,0 UV-I 0 W/m -1,9 C 2,2 C 3,2 km/h (1 Bft) 96,00 %
25.02.2017 20:44 2,0 C 76 % 1021,7 hPa 0,0 l/m 2,9 km/h (1 Bft) O 80 0 min 0,000 mm 0,0 UV-I 0 W/m -1,8 C 2,0 C 4,8 km/h (1 Bft) 95,74 %
25.02.2017 20:46 1,8 C 77 % 1021,7 hPa 0,0 l/m 3,4 km/h (1 Bft) O 80 0 min 0,000 mm 0,0 UV-I 0 W/m -1,8 C 1,8 C 4,8 km/h (1 Bft) 100,00 %
25.02.2017 20:48 1,8 C 77 % 1021,8 hPa 0,0 l/m 2,6 km/h (1 Bft) O 80 0 min 0,000 mm 0,0 UV-I 0 W/m -1,8 C 1,8 C 3,2 km/h (1 Bft) 97,87 %
25.02.2017 20:50 1,9 C 77 % 1021,8 hPa 0,0 l/m 0,7 km/h (0 Bft) O 80 0 min 0,000 mm 0,0 UV-I 0 W/m -1,7 C 1,9 C 1,6 km/h (1 Bft) 98,11 %
25.02.2017 20:52 1,9 C 77 % 1021,9 hPa 0,0 l/m 0,0 km/h (0 Bft) O 80 0 min 0,000 mm 0,0 UV-I 0 W/m -1,7 C 1,9 C 0,0 km/h (0 Bft) 97,56 %
25.02.2017 20:54 1,9 C 77 % 1021,9 hPa 0,0 l/m 0,0 km/h (0 Bft) O 80 0 min 0,000 mm 0,0 UV-I 0 W/m -1,7 C 1,9 C 0,0 km/h (0 Bft) 96,00 %
25.02.2017 20:56 1,9 C 77 % 1021,9 hPa 0,0 l/m 0,0 km/h (0 Bft) O 80 0 min 0,000 mm 0,0 UV-I 0 W/m -1,7 C 1,9 C 1,6 km/h (1 Bft) 100,00 %
25.02.2017 20:58 1,7 C 77 % 1021,8 hPa 0,0 l/m 0,3 km/h (0 Bft) O 80 0 min 0,000 mm 0,0 UV-I 0 W/m -1,9 C 1,7 C 1,6 km/h (1 Bft) 100,00 %
25.02.2017 21:00 1,4 C 78 % 1021,8 hPa 0,0 l/m 2,0 km/h (1 Bft) O 80 0 min 0,000 mm 0,0 UV-I 0 W/m -2,0 C 1,4 C 4,8 km/h (1 Bft) 100,00 %
25.02.2017 21:02 1,3 C 80 % 1021,8 hPa 0,0 l/m 2,5 km/h (1 Bft) O 80 0 min 0,000 mm 0,0 UV-I 0 W/m -1,8 C 1,3 C 3,2 km/h (1 Bft) 97,87 %
25.02.2017 21:04 1,2 C 80 % 1021,8 hPa 0,0 l/m 3,5 km/h (1 Bft) O 80 0 min 0,000 mm 0,0 UV-I 0 W/m -1,9 C 1,2 C 4,8 km/h (1 Bft) 100,00 %
25.02.2017 21:06 1,1 C 81 % 1021,8 hPa 0,0 l/m 3,9 km/h (1 Bft) O 80 0 min 0,000 mm 0,0 UV-I 0 W/m -1,8 C 1,1 C 6,4 km/h (2 Bft) 100,00 %
25.02.2017 21:08 1,1 C 81 % 1021,7 hPa 0,0 l/m 3,1 km/h (1 Bft) O 80 0 min 0,000 mm 0,0 UV-I 0 W/m -1,8 C 1,1 C 4,8 km/h (1 Bft) 94,83 %
25.02.2017 21:10 1,0 C 81 % 1021,7 hPa 0,0 l/m 4,2 km/h (1 Bft) O 80 0 min 0,000 mm 0,0 UV-I 0 W/m -1,9 C 1,0 C 6,4 km/h (2 Bft) 94,00 %
25.02.2017 21:12 0,9 C 82 % 1021,7 hPa 0,0 l/m 2,8 km/h (1 Bft) O 80 0 min 0,000 mm 0,0 UV-I 0 W/m -1,8 C 0,9 C 4,8 km/h (1 Bft) 94,87 %
25.02.2017 21:14 0,8 C 82 % 1021,7 hPa 0,0 l/m 3,7 km/h (1 Bft) O 80 0 min 0,000 mm 0,0 UV-I 0 W/m -1,9 C 0,8 C 6,4 km/h (2 Bft) 90,38 %
25.02.2017 21:16 0,7 C 83 % 1021,7 hPa 0,0 l/m 3,3 km/h (1 Bft) O 80 0 min 0,000 mm 0,0 UV-I 0 W/m -1,8 C 0,7 C 4,8 km/h (1 Bft) 95,83 %
25.02.2017 21:18 0,7 C 83 % 1021,7 hPa 0,0 l/m 3,2 km/h (1 Bft) O 80 0 min 0,000 mm 0,0 UV-I 0 W/m -1,8 C 0,7 C 4,8 km/h (1 Bft) 93,62 %
25.02.2017 21:20 0,7 C 84 % 1021,7 hPa 0,0 l/m 2,7 km/h (1 Bft) O 80 0 min 0,000 mm 0,0 UV-I 0 W/m -1,7 C 0,7 C 4,8 km/h (1 Bft) 91,49 %
25.02.2017 21:22 0,7 C 83 % 1021,7 hPa 0,0 l/m 3,4 km/h (1 Bft) O 80 0 min 0,000 mm 0,0 UV-I 0 W/m -1,8 C 0,7 C 6,4 km/h (2 Bft) 90,00 %
25.02.2017 21:24 0,7 C 83 % 1021,7 hPa 0,0 l/m 3,5 km/h (1 Bft) O 80 0 min 0,000 mm 0,0 UV-I 0 W/m -1,8 C 0,7 C 6,4 km/h (2 Bft) 100,00 %
25.02.2017 21:26 0,8 C 83 % 1021,7 hPa 0,0 l/m 1,8 km/h (1 Bft) O 80 0 min 0,000 mm 0,0 UV-I 0 W/m -1,8 C 0,8 C 4,8 km/h (1 Bft) 87,23 %
25.02.2017 21:28 0,9 C 82 % 1021,7 hPa 0,0 l/m 0,6 km/h (0 Bft) O 80 0 min 0,000 mm 0,0 UV-I 0 W/m -1,8 C 0,9 C 3,2 km/h (1 Bft) 92,45 %
25.02.2017 21:30 0,9 C 82 % 1021,7 hPa 0,0 l/m 0,0 km/h (0 Bft) O 80 0 min 0,000 mm 0,0 UV-I 0 W/m -1,8 C 0,9 C 0,0 km/h (0 Bft) 97,96 %
25.02.2017 21:32 0,9 C 82 % 1021,7 hPa 0,0 l/m 0,0 km/h (0 Bft) O 80 0 min 0,000 mm 0,0 UV-I 0 W/m -1,8 C 0,9 C 0,0 km/h (0 Bft) 94,29 %
25.02.2017 21:34 0,9 C 82 % 1021,7 hPa 0,0 l/m 0,0 km/h (0 Bft) O 80 0 min 0,000 mm 0,0 UV-I 0 W/m -1,8 C 0,9 C 0,0 km/h (0 Bft) 95,12 %
25.02.2017 21:36 0,7 C 82 % 1021,7 hPa 0,0 l/m 0,0 km/h (0 Bft) O 80 0 min 0,000 mm 0,0 UV-I 0 W/m -2,0 C 0,7 C 0,0 km/h (0 Bft) 91,94 %
25.02.2017 21:38 0,6 C 83 % 1021,7 hPa 0,0 l/m 0,0 km/h (0 Bft) O 80 0 min 0,000 mm 0,0 UV-I 0 W/m -1,9 C 0,6 C 0,0 km/h (0 Bft) 97,87 %
25.02.2017 21:40 0,4 C 84 % 1021,7 hPa 0,0 l/m 0,0 km/h (0 Bft) O 80 0 min 0,000 mm 0,0 UV-I 0 W/m -2,0 C 0,4 C 0,0 km/h (0 Bft) 95,12 %
25.02.2017 21:42 0,3 C 84 % 1021,7 hPa 0,0 l/m 0,8 km/h (0 Bft) O 80 0 min 0,000 mm 0,0 UV-I 0 W/m -2,1 C 0,3 C 3,2 km/h (1 Bft) 91,49 %
25.02.2017 21:44 0,2 C 84 % 1021,7 hPa 0,0 l/m 3,2 km/h (1 Bft) O 80 0 min 0,000 mm 0,0 UV-I 0 W/m -2,2 C 0,2 C 4,8 km/h (1 Bft) 94,00 %
25.02.2017 21:46 0,2 C 85 % 1021,6 hPa 0,0 l/m 3,2 km/h (1 Bft) O 80 0 min 0,000 mm 0,0 UV-I 0 W/m -2,0 C 0,2 C 4,8 km/h (1 Bft) 98,00 %
25.02.2017 21:48 0,3 C 85 % 1021,6 hPa 0,0 l/m 2,6 km/h (1 Bft) O 80 0 min 0,000 mm 0,0 UV-I 0 W/m -1,9 C 0,3 C 3,2 km/h (1 Bft) 95,45 %
25.02.2017 21:50 0,4 C 85 % 1021,6 hPa 0,0 l/m 2,2 km/h (1 Bft) O 80 0 min 0,000 mm 0,0 UV-I 0 W/m -1,8 C 0,4 C 3,2 km/h (1 Bft) 98,11 %
25.02.2017 21:52 0,4 C 85 % 1021,6 hPa 0,0 l/m 1,3 km/h (1 Bft) O 80 0 min 0,000 mm 0,0 UV-I 0 W/m -1,8 C 0,4 C 3,2 km/h (1 Bft) 97,44 %
25.02.2017 21:54 0,3 C 85 % 1021,7 hPa 0,0 l/m 1,2 km/h (1 Bft) O 80 0 min 0,000 mm 0,0 UV-I 0 W/m -1,9 C 0,3 C 1,6 km/h (1 Bft) 92,31 %
25.02.2017 21:56 0,1 C 85 % 1021,7 hPa 0,0 l/m 2,2 km/h (1 Bft) O 80 0 min 0,000 mm 0,0 UV-I 0 W/m -2,1 C 0,1 C 3,2 km/h (1 Bft) 96,00 %
25.02.2017 21:59 -0,1 C 86 % 1021,7 hPa 0,0 l/m 2,0 km/h (1 Bft) O 80 0 min 0,000 mm 0,0 UV-I 0 W/m -2,2 C -0,1 C 3,2 km/h (1 Bft) 96,77 %
25.02.2017 22:00 -0,1 C 86 % 1021,7 hPa 0,0 l/m 1,6 km/h (1 Bft) O 80 0 min 0,000 mm 0,0 UV-I 0 W/m -2,2 C -0,1 C 3,2 km/h (1 Bft) 100,00 %
25.02.2017 22:02 -0,1 C 86 % 1021,7 hPa 0,0 l/m 1,5 km/h (1 Bft) O 80 0 min 0,000 mm 0,0 UV-I 0 W/m -2,2 C -0,1 C 3,2 km/h (1 Bft) 96,43 %
25.02.2017 22:04 0,0 C 86 % 1021,8 hPa 0,0 l/m 1,1 km/h (1 Bft) O 80 0 min 0,000 mm 0,0 UV-I 0 W/m -2,1 C 0,0 C 1,6 km/h (1 Bft) 94,00 %
25.02.2017 22:06 0,2 C 85 % 1021,8 hPa 0,0 l/m 0,9 km/h (0 Bft) O 80 0 min 0,000 mm 0,0 UV-I 0 W/m -2,0 C 0,2 C 1,6 km/h (1 Bft) 87,23 %
25.02.2017 22:08 0,2 C 85 % 1021,7 hPa 0,0 l/m 0,3 km/h (0 Bft) O 80 0 min 0,000 mm 0,0 UV-I 0 W/m -2,0 C 0,2 C 1,6 km/h (1 Bft) 96,00 %
25.02.2017 22:10 0,3 C 84 % 1021,7 hPa 0,0 l/m 0,3 km/h (0 Bft) O 80 0 min 0,000 mm 0,0 UV-I 0 W/m -2,1 C 0,3 C 1,6 km/h (1 Bft) 97,87 %
25.02.2017 22:12 0,4 C 84 % 1021,7 hPa 0,0 l/m 0,0 km/h (0 Bft) O 80 0 min 0,000 mm 0,0 UV-I 0 W/m -2,0 C 0,4 C 0,0 km/h (0 Bft) 100,00 %
25.02.2017 22:14 0,2 C 84 % 1021,6 hPa 0,0 l/m 0,8 km/h (0 Bft) O 80 0 min 0,000 mm 0,0 UV-I 0 W/m -2,2 C 0,2 C 3,2 km/h (1 Bft) 92,00 %
25.02.2017 22:16 0,0 C 85 % 1021,6 hPa 0,0 l/m 1,9 km/h (1 Bft) O 80 0 min 0,000 mm 0,0 UV-I 0 W/m -2,2 C 0,0 C 3,2 km/h (1 Bft) 94,00 %
25.02.2017 22:18 -0,1 C 87 % 1021,6 hPa 0,0 l/m 2,4 km/h (1 Bft) O 80 0 min 0,000 mm 0,0 UV-I 0 W/m -2,0 C -0,1 C 3,2 km/h (1 Bft) 95,12 %
25.02.2017 22:20 -0,2 C 87 % 1021,6 hPa 0,0 l/m 2,5 km/h (1 Bft) O 80 0 min 0,000 mm 0,0 UV-I 0 W/m -2,1 C -0,2 C 3,2 km/h (1 Bft) 100,00 %
25.02.2017 22:22 -0,2 C 88 % 1021,6 hPa 0,0 l/m 2,9 km/h (1 Bft) O 80 0 min 0,000 mm 0,0 UV-I 0 W/m -1,9 C -0,2 C 3,2 km/h (1 Bft) 98,00 %
25.02.2017 22:24 -0,1 C 87 % 1021,6 hPa 0,0 l/m 2,7 km/h (1 Bft) O 80 0 min 0,000 mm 0,0 UV-I 0 W/m -2,0 C -0,1 C 3,2 km/h (1 Bft) 92,00 %
25.02.2017 22:26 -0,1 C 87 % 1021,6 hPa 0,0 l/m 2,1 km/h (1 Bft) O 80 0 min 0,000 mm 0,0 UV-I 0 W/m -2,0 C -0,1 C 3,2 km/h (1 Bft) 95,74 %
25.02.2017 22:28 -0,1 C 87 % 1021,6 hPa 0,0 l/m 0,1 km/h (0 Bft) O 80 0 min 0,000 mm 0,0 UV-I 0 W/m -2,0 C -0,1 C 1,6 km/h (1 Bft) 93,62 %
25.02.2017 22:30 -0,2 C 87 % 1021,6 hPa 0,0 l/m 0,0 km/h (0 Bft) O 80 0 min 0,000 mm 0,0 UV-I 0 W/m -2,1 C -0,2 C 0,0 km/h (0 Bft) 97,44 %
25.02.2017 22:32 -0,3 C 87 % 1021,6 hPa 0,0 l/m 0,3 km/h (0 Bft) O 80 0 min 0,000 mm 0,0 UV-I 0 W/m -2,2 C -0,3 C 1,6 km/h (1 Bft) 94,00 %
25.02.2017 22:34 -0,2 C 87 % 1021,6 hPa 0,0 l/m 0,5 km/h (0 Bft) O 80 0 min 0,000 mm 0,0 UV-I 0 W/m -2,1 C -0,2 C 1,6 km/h (1 Bft) 94,00 %
25.02.2017 22:36 -0,2 C 87 % 1021,6 hPa 0,0 l/m 0,9 km/h (0 Bft) O 80 0 min 0,000 mm 0,0 UV-I 0 W/m -2,1 C -0,2 C 1,6 km/h (1 Bft) 93,62 %
25.02.2017 22:38 -0,1 C 87 % 1021,6 hPa 0,0 l/m 0,0 km/h (0 Bft) O 80 0 min 0,000 mm 0,0 UV-I 0 W/m -2,0 C -0,1 C 0,0 km/h (0 Bft) 97,87 %
25.02.2017 22:40 0,0 C 86 % 1021,6 hPa 0,0 l/m 0,5 km/h (0 Bft) O 80 0 min 0,000 mm 0,0 UV-I 0 W/m -2,1 C 0,0 C 1,6 km/h (1 Bft) 96,00 %
25.02.2017 22:42 0,1 C 86 % 1021,5 hPa 0,0 l/m 0,6 km/h (0 Bft) O 80 0 min 0,000 mm 0,0 UV-I 0 W/m -2,0 C 0,1 C 3,2 km/h (1 Bft) 95,74 %
25.02.2017 22:44 -0,1 C 86 % 1021,5 hPa 0,0 l/m 0,3 km/h (0 Bft) O 80 0 min 0,000 mm 0,0 UV-I 0 W/m -2,2 C -0,1 C 1,6 km/h (1 Bft) 100,00 %
25.02.2017 22:46 -0,2 C 86 % 1021,5 hPa 0,0 l/m 0,3 km/h (0 Bft) O 80 0 min 0,000 mm 0,0 UV-I 0 W/m -2,3 C -0,2 C 3,2 km/h (1 Bft) 98,00 %
25.02.2017 22:48 -0,3 C 86 % 1021,4 hPa 0,0 l/m 0,8 km/h (0 Bft) O 80 0 min 0,000 mm 0,0 UV-I 0 W/m -2,3 C -0,3 C 3,2 km/h (1 Bft) 98,00 %
25.02.2017 22:50 -0,5 C 86 % 1021,3 hPa 0,0 l/m 1,9 km/h (1 Bft) O 80 0 min 0,000 mm 0,0 UV-I 0 W/m -2,5 C -0,5 C 3,2 km/h (1 Bft) 97,37 %
25.02.2017 22:52 -0,6 C 87 % 1021,3 hPa 0,0 l/m 2,2 km/h (1 Bft) O 80 0 min 0,000 mm 0,0 UV-I 0 W/m -2,5 C -0,6 C 3,2 km/h (1 Bft) 98,21 %
25.02.2017 22:54 -0,5 C 88 % 1021,3 hPa 0,0 l/m 0,7 km/h (0 Bft) O 80 0 min 0,000 mm 0,0 UV-I 0 W/m -2,2 C -0,5 C 3,2 km/h (1 Bft) 95,45 %
25.02.2017 22:56 -0,5 C 88 % 1021,3 hPa 0,0 l/m 0,7 km/h (0 Bft) O 80 0 min 0,000 mm 0,0 UV-I 0 W/m -2,2 C -0,5 C 1,6 km/h (1 Bft) 93,62 %
25.02.2017 22:58 -0,5 C 88 % 1021,2 hPa 0,0 l/m 2,0 km/h (1 Bft) O 80 0 min 0,000 mm 0,0 UV-I 0 W/m -2,2 C -0,5 C 3,2 km/h (1 Bft) 100,00 %
25.02.2017 23:00 -0,5 C 88 % 1021,2 hPa 0,0 l/m 0,3 km/h (0 Bft) O 80 0 min 0,000 mm 0,0 UV-I 0 W/m -2,2 C -0,5 C 1,6 km/h (1 Bft) 96,08 %
25.02.2017 23:02 -0,5 C 88 % 1021,2 hPa 0,0 l/m 0,7 km/h (0 Bft) O 80 0 min 0,000 mm 0,0 UV-I 0 W/m -2,2 C -0,5 C 3,2 km/h (1 Bft) 100,00 %
25.02.2017 23:04 -0,5 C 88 % 1021,1 hPa 0,0 l/m 0,5 km/h (0 Bft) O 80 0 min 0,000 mm 0,0 UV-I 0 W/m -2,2 C -0,5 C 1,6 km/h (1 Bft) 97,56 %
25.02.2017 23:06 -0,4 C 87 % 1021,1 hPa 0,0 l/m 0,1 km/h (0 Bft) O 80 0 min 0,000 mm 0,0 UV-I 0 W/m -2,3 C -0,4 C 1,6 km/h (1 Bft) 100,00 %
25.02.2017 23:08 -0,5 C 88 % 1021,1 hPa 0,0 l/m 0,8 km/h (0 Bft) O 80 0 min 0,000 mm 0,0 UV-I 0 W/m -2,2 C -0,5 C 3,2 km/h (1 Bft) 94,44 %
25.02.2017 23:10 -0,4 C 88 % 1021,0 hPa 0,0 l/m 2,0 km/h (1 Bft) O 80 0 min 0,000 mm 0,0 UV-I 0 W/m -2,1 C -0,4 C 3,2 km/h (1 Bft) 98,00 %
25.02.2017 23:12 -0,4 C 87 % 1021,0 hPa 0,0 l/m 2,4 km/h (1 Bft) O 80 0 min 0,000 mm 0,0 UV-I 0 W/m -2,3 C -0,4 C 3,2 km/h (1 Bft) 98,00 %
25.02.2017 23:14 -0,4 C 88 % 1021,0 hPa 0,0 l/m 3,1 km/h (1 Bft) O 80 0 min 0,000 mm 0,0 UV-I 0 W/m -2,1 C -0,4 C 3,2 km/h (1 Bft) 100,00 %
25.02.2017 23:16 -0,4 C 89 % 1020,9 hPa 0,0 l/m 2,8 km/h (1 Bft) O 80 0 min 0,000 mm 0,0 UV-I 0 W/m -2,0 C -0,4 C 3,2 km/h (1 Bft) 98,39 %
25.02.2017 23:18 -0,4 C 89 % 1020,9 hPa 0,0 l/m 2,7 km/h (1 Bft) O 80 0 min 0,000 mm 0,0 UV-I 0 W/m -2,0 C -0,4 C 3,2 km/h (1 Bft) 100,00 %
25.02.2017 23:20 -0,4 C 89 % 1020,8 hPa 0,0 l/m 1,9 km/h (1 Bft) O 80 0 min 0,000 mm 0,0 UV-I 0 W/m -2,0 C -0,4 C 3,2 km/h (1 Bft) 98,00 %
25.02.2017 23:22 -0,4 C 89 % 1020,8 hPa 0,0 l/m 1,4 km/h (1 Bft) O 80 0 min 0,000 mm 0,0 UV-I 0 W/m -2,0 C -0,4 C 1,6 km/h (1 Bft) 98,00 %
25.02.2017 23:24 -0,4 C 89 % 1020,8 hPa 0,0 l/m 0,1 km/h (0 Bft) O 80 0 min 0,000 mm 0,0 UV-I 0 W/m -2,0 C -0,4 C 1,6 km/h (1 Bft) 100,00 %
25.02.2017 23:26 -0,4 C 89 % 1020,7 hPa 0,0 l/m 0,0 km/h (0 Bft) O 80 0 min 0,000 mm 0,0 UV-I 0 W/m -2,0 C -0,4 C 0,0 km/h (0 Bft) 97,37 %
25.02.2017 23:28 -0,4 C 89 % 1020,7 hPa 0,0 l/m 0,0 km/h (0 Bft) O 80 0 min 0,000 mm 0,0 UV-I 0 W/m -2,0 C -0,4 C 0,0 km/h (0 Bft) 100,00 %
25.02.2017 23:30 -0,4 C 89 % 1020,7 hPa 0,0 l/m 0,1 km/h (0 Bft) O 80 0 min 0,000 mm 0,0 UV-I 0 W/m -2,0 C -0,4 C 1,6 km/h (1 Bft) 97,87 %
25.02.2017 23:32 -0,4 C 89 % 1020,6 hPa 0,0 l/m 0,0 km/h (0 Bft) O 80 0 min 0,000 mm 0,0 UV-I 0 W/m -2,0 C -0,4 C 0,0 km/h (0 Bft) 98,11 %
25.02.2017 23:34 -0,3 C 89 % 1020,6 hPa 0,0 l/m 0,0 km/h (0 Bft) O 80 0 min 0,000 mm 0,0 UV-I 0 W/m -1,9 C -0,3 C 0,0 km/h (0 Bft) 100,00 %
25.02.2017 23:36 -0,3 C 89 % 1020,6 hPa 0,0 l/m 0,0 km/h (0 Bft) O 80 0 min 0,000 mm 0,0 UV-I 0 W/m -1,9 C -0,3 C 0,0 km/h (0 Bft) 98,39 %
25.02.2017 23:38 -0,4 C 89 % 1020,6 hPa 0,0 l/m 0,0 km/h (0 Bft) O 80 0 min 0,000 mm 0,0 UV-I 0 W/m -2,0 C -0,4 C 1,6 km/h (1 Bft) 97,37 %
25.02.2017 23:40 -0,5 C 88 % 1020,6 hPa 0,0 l/m 1,1 km/h (1 Bft) O 80 0 min 0,000 mm 0,0 UV-I 0 W/m -2,2 C -0,5 C 1,6 km/h (1 Bft) 96,15 %
25.02.2017 23:42 -0,6 C 88 % 1020,7 hPa 0,0 l/m 2,1 km/h (1 Bft) O 80 0 min 0,000 mm 0,0 UV-I 0 W/m -2,3 C -0,6 C 3,2 km/h (1 Bft) 96,00 %
25.02.2017 23:44 -0,7 C 89 % 1020,7 hPa 0,0 l/m 1,9 km/h (1 Bft) O 80 0 min 0,000 mm 0,0 UV-I 0 W/m -2,3 C -0,7 C 3,2 km/h (1 Bft) 94,74 %
25.02.2017 23:46 -0,8 C 89 % 1020,7 hPa 0,0 l/m 2,0 km/h (1 Bft) O 80 0 min 0,000 mm 0,0 UV-I 0 W/m -2,4 C -0,8 C 3,2 km/h (1 Bft) 95,74 %
25.02.2017 23:48 -0,8 C 90 % 1020,7 hPa 0,0 l/m 0,9 km/h (0 Bft) O 80 0 min 0,000 mm 0,0 UV-I 0 W/m -2,2 C -0,8 C 1,6 km/h (1 Bft) 100,00 %
25.02.2017 23:50 -0,8 C 90 % 1020,7 hPa 0,0 l/m 0,4 km/h (0 Bft) O 80 0 min 0,000 mm 0,0 UV-I 0 W/m -2,2 C -0,8 C 1,6 km/h (1 Bft) 96,23 %
25.02.2017 23:52 -0,8 C 90 % 1020,7 hPa 0,0 l/m 0,9 km/h (0 Bft) O 80 0 min 0,000 mm 0,0 UV-I 0 W/m -2,2 C -0,8 C 1,6 km/h (1 Bft) 93,62 %
25.02.2017 23:54 -0,8 C 90 % 1020,7 hPa 0,0 l/m 0,0 km/h (0 Bft) O 80 0 min 0,000 mm 0,0 UV-I 0 W/m -2,2 C -0,8 C 0,0 km/h (0 Bft) 91,49 %
25.02.2017 23:56 -0,8 C 90 % 1020,7 hPa 0,0 l/m 0,4 km/h (0 Bft) O 80 0 min 0,000 mm 0,0 UV-I 0 W/m -2,2 C -0,8 C 1,6 km/h (1 Bft) 94,44 %
25.02.2017 23:59 -0,8 C 90 % 1020,7 hPa 0,0 l/m 0,0 km/h (0 Bft) O 80 0 min 0,000 mm 0,0 UV-I 0 W/m -2,2 C -0,8 C 1,6 km/h (1 Bft) 93,15 %
_ Min-Zeit 23:46 15:22 00:00 - 07:50 - - - - - - 22:50 04:52 16:48 00:56
Minimum _ -0,8 C 51 % 1018,6 hPa - 0,0 km/h (0 Bft) - - - - - - -2,5 C -3,8 C 0,0 km/h (0 Bft) 83,33 %
_ Max-Zeit 14:02 07:50 10:54 00:00 13:50 - - 10:09 13:00 12:32 13:10 10:16 14:10 13:50 00:32
Maximum _ 8,0 C 94 % 1024,7 hPa 0,0 l/m 13,3 km/h
W-SW (3 Bft)
- - 3 min 0,254 mm 1,6 UV-I 647 W/m 1,4 C 8,0 C 19,3 km/h
W (3 Bft)
100,00 %
Durchschnitt _ 2,9 C 78 % 1022,0 hPa #0,0 l/m 5,3 km/h (1 Bft) SW - #9:24 h #1,600 mm 1,1 UV-I 314 W/m -0,7 C 2,2 C 8,6 km/h (2 Bft) 96,66 %